GFSNW_sfc_wetblb_000.txt.gz
Wetbulb
52.47 52.70 52.01 50.93 50.28 49.07 52.07 53.51 49.15 59.23 59.67 49.22 49.66 47.02 49.05 49.84 50.79 52.67 50.66 50.47 49.54 49.04 50.17 50.20 51.09 50.58 52.88 56.66 55.89 53.62 55.55 53.05 49.77 52.05 55.13 55.99 54.69 53.16 53.13 49.41 50.50 51.33 50.98 49.66
52.51 52.32 51.80 50.79 49.67 49.18 49.16 51.16 52.52 59.64 58.22 46.18 46.59 49.36 49.02 50.65 49.91 50.75 50.03 48.89 50.15 51.45 50.07 48.93 51.62 52.75 55.35 56.44 55.23 54.72 55.91 52.30 47.93 50.24 53.60 55.18 52.83 53.45 54.19 55.32 56.00 51.90 48.11 50.12
52.28 52.28 51.63 50.89 50.03 49.15 49.84 51.85 47.86 52.62 54.55 53.36 49.49 49.33 49.63 48.82 51.74 50.76 51.64 50.34 51.05 49.61 49.49 51.76 50.57 52.41 54.58 56.29 56.04 63.68 61.12 55.62 52.19 47.73 51.36 54.27 52.01 52.86 53.31 53.96 50.77 50.48 50.22 53.87
51.84 51.92 51.36 50.89 50.11 49.22 50.63 52.88 50.17 53.36 48.31 49.28 49.88 50.24 50.87 50.43 48.65 51.64 51.91 50.07 49.68 49.66 48.51 49.31 49.58 52.49 55.28 54.90 60.17 58.16 57.80 55.27 54.78 53.25 54.61 54.95 54.56 53.84 53.00 51.17 53.03 49.95 52.87 53.52
51.69 51.40 51.11 50.84 49.82 48.30 52.32 50.06 49.76 52.31 50.73 52.40 51.69 49.58 48.48 50.05 51.83 50.91 49.72 48.40 50.37 51.02 50.76 51.28 50.42 52.21 53.80 53.82 56.37 56.74 58.45 54.69 55.56 52.83 54.63 54.30 53.06 54.55 53.79 52.45 52.28 52.82 53.15 52.68
50.92 50.38 50.58 50.59 49.38 48.40 51.74 52.95 53.55 50.83 47.90 49.47 49.19 50.27 51.33 50.03 52.36 53.65 52.47 52.81 51.03 50.06 52.38 54.30 55.35 55.61 58.55 57.92 56.28 57.04 57.11 55.77 55.39 50.30 53.64 53.12 50.79 53.35 54.66 53.87 54.53 54.11 53.95 55.97
49.62 49.51 49.45 50.28 49.48 48.34 49.39 51.86 49.68 47.75 44.80 47.73 48.18 50.70 51.42 51.55 52.72 51.54 53.73 53.58 53.34 55.65 59.51 59.49 57.75 56.92 57.57 58.78 58.89 59.66 58.47 58.65 55.46 51.16 53.68 45.46 54.46 59.30 57.92 57.15 55.97 56.36 61.19 59.17
48.77 48.62 48.83 49.51 49.78 49.22 48.63 51.34 48.73 48.33 45.22 48.23 49.91 51.06 49.22 54.42 54.88 52.47 53.39 54.49 56.74 59.14 56.93 53.03 51.53 51.09 52.73 54.39 56.64 57.99 59.02 58.11 52.94 49.70 49.36 52.10 55.52 56.85 54.85 56.71 54.83 58.67 61.20 62.15
48.14 48.38 48.59 48.84 49.41 48.91 47.95 51.48 50.36 48.31 46.19 46.16 51.11 49.53 51.09 50.97 50.59 52.82 53.31 56.83 58.93 57.11 53.56 51.53 47.31 46.11 49.41 48.43 51.53 57.11 57.37 61.55 53.70 52.02 47.54 45.08 54.58 59.52 62.02 60.92 52.31 63.41 63.28 64.24
47.88 48.19 48.65 48.56 48.41 48.53 47.09 49.29 51.63 47.62 44.85 49.99 50.55 47.20 47.60 52.21 50.82 51.58 54.64 54.97 54.63 56.49 50.70 48.05 47.29 46.98 52.79 48.09 48.23 50.83 52.48 53.91 51.00 49.65 48.79 52.08 59.53 61.48 62.09 50.99 55.34 63.87 64.77 65.34
47.93 47.92 48.17 48.01 48.25 48.21 47.01 48.42 51.68 47.06 44.73 47.68 50.23 51.42 49.52 51.02 50.76 48.04 53.01 53.91 54.58 53.28 48.20 47.92 48.08 48.46 51.01 52.50 54.23 54.03 52.08 51.67 50.10 51.68 49.32 46.64 60.89 59.56 54.74 62.31 64.82 65.56 64.68 63.89
46.91 47.54 48.06 47.99 47.79 47.82 47.26 46.73 50.73 50.35 44.34 46.57 50.44 51.21 52.24 51.07 53.23 51.65 53.68 50.60 53.42 54.68 51.35 52.00 53.11 50.96 52.71 52.39 48.56 56.63 50.51 54.69 53.42 55.19 54.61 62.53 65.40 64.34 66.16 65.99 64.75 65.63 64.63 63.92
47.18 47.14 47.23 47.14 47.18 47.21 46.33 45.48 47.65 47.16 45.75 47.97 49.79 49.58 55.24 55.90 54.95 55.33 47.70 53.11 55.19 54.05 57.95 53.39 52.75 50.51 51.33 50.23 48.67 52.19 55.71 57.57 54.84 55.24 57.77 59.88 62.61 64.62 65.33 65.67 64.65 65.28 65.18 63.95
46.48 46.79 46.63 47.03 47.04 46.88 46.48 45.26 47.58 46.60 46.27 43.11 48.77 55.40 53.56 56.30 56.23 55.77 55.39 54.11 56.23 57.39 56.01 52.46 50.46 49.03 53.54 50.00 52.09 51.73 54.13 56.06 54.21 53.59 57.81 56.57 61.41 63.73 64.71 64.56 64.92 64.23 64.15 63.60
46.39 46.57 46.83 46.77 46.76 47.09 47.57 48.58 48.76 48.46 43.99 41.80 45.64 51.29 53.89 55.17 55.51 54.53 55.27 54.89 54.71 53.44 51.36 50.94 49.50 52.41 52.19 52.98 52.40 51.55 54.99 53.56 51.96 51.57 58.88 58.49 58.65 64.45 64.65 63.43 62.74 63.29 61.97 61.32
46.58 46.76 46.85 46.75 46.70 46.88 46.78 44.57 50.17 51.95 50.25 43.43 42.87 53.21 53.16 54.89 54.34 53.65 53.62 54.43 54.06 53.27 52.01 51.47 52.65 55.30 52.67 48.00 47.56 54.29 55.66 55.68 59.80 57.58 61.41 61.42 60.78 60.65 60.56 61.79 61.38 61.60 61.45 61.26
46.95 47.25 47.58 47.26 47.03 47.46 45.33 43.25 47.71 49.94 52.05 43.77 42.74 46.74 52.62 53.56 53.23 52.87 52.24 54.53 53.06 52.68 51.81 51.13 51.52 52.77 52.83 48.60 45.90 52.74 55.46 56.99 56.89 59.07 57.77 57.87 58.01 58.13 61.57 61.28 61.61 60.58 61.75 61.37
47.50 47.80 48.23 47.64 47.67 46.47 46.33 50.46 49.16 50.71 46.92 45.45 41.33 44.95 48.89 54.64 49.94 49.12 52.69 50.65 52.16 51.81 50.62 51.63 50.12 51.88 51.65 46.81 51.26 53.21 55.10 55.31 55.82 55.69 57.65 58.57 56.23 61.88 61.89 62.15 60.98 59.19 58.97 59.57
47.78 47.58 48.12 49.75 48.67 47.45 49.76 51.71 50.63 51.75 47.45 42.49 44.54 41.96 41.87 53.38 50.43 52.16 52.09 52.77 46.95 51.52 48.02 48.40 49.61 48.38 44.55 50.03 51.89 53.07 54.31 55.04 55.36 56.86 53.93 57.18 52.76 57.79 60.98 61.03 60.31 58.76 57.92 59.14
48.10 47.92 47.20 46.53 49.88 51.69 51.05 49.08 46.38 46.50 46.22 46.22 43.40 48.49 44.75 49.58 49.29 48.35 49.90 50.53 46.31 44.24 47.85 50.60 48.09 47.05 52.72 53.24 54.54 55.69 56.05 55.89 56.46 55.53 55.31 57.71 59.17 59.46 60.06 59.36 59.37 59.06 57.82 57.84
49.04 47.43 45.31 50.48 51.47 49.47 47.44 43.34 42.24 44.53 42.39 45.25 46.66 47.44 45.12 50.85 44.92 46.57 50.67 47.51 48.13 42.96 46.45 45.46 44.42 44.52 50.59 54.86 55.80 57.86 56.79 56.50 57.22 57.93 58.73 59.89 60.57 60.64 59.62 59.33 59.19 58.75 58.37 57.54
44.64 44.25 47.79 50.66 46.60 45.31 42.12 42.23 44.28 43.06 41.18 47.03 45.08 48.20 49.98 48.97 52.01 48.23 50.30 45.95 47.25 41.17 49.79 45.57 42.65 48.96 54.57 52.86 54.29 56.04 56.39 56.53 57.27 57.88 57.94 58.59 60.18 61.37 60.54 59.86 58.50 58.04 58.82 58.62
48.75 46.29 43.11 44.42 44.08 36.38 37.46 36.06 41.19 42.48 48.40 49.16 49.77 47.23 48.65 50.34 50.11 47.04 47.65 43.90 43.09 49.98 45.43 43.60 46.65 53.96 54.04 53.95 54.06 55.69 56.65 56.15 56.80 57.38 57.83 58.58 60.73 61.67 60.57 59.03 57.53 58.34 57.70 57.77
44.39 40.58 33.23 38.24 38.02 39.68 42.88 42.98 44.83 48.27 49.82 48.17 47.18 46.59 47.39 50.75 47.32 47.82 42.08 46.70 48.16 43.22 41.35 42.99 50.28 53.88 53.92 57.94 55.50 55.80 54.69 56.58 56.08 57.08 58.42 59.97 59.97 59.92 60.09 59.33 57.77 56.71 55.82 55.59
42.16 42.68 33.97 39.99 44.87 45.40 45.53 46.12 45.95 49.00 50.56 47.46 46.40 46.81 49.22 47.54 45.74 47.06 45.00 42.82 41.42 44.12 44.09 48.81 51.81 54.05 55.09 57.41 57.67 58.25 57.55 56.02 59.49 59.49 59.78 59.60 59.30 57.90 57.02 55.07 55.55 54.24 52.98 53.61
43.04 42.08 40.78 45.00 44.59 42.87 45.12 44.97 45.54 48.58 48.46 48.87 48.97 44.18 41.47 41.35 44.93 42.73 41.51 41.91 40.12 42.03 49.53 52.57 53.28 53.24 54.73 57.55 58.73 59.24 58.97 60.28 60.58 59.70 58.35 57.15 56.20 53.97 52.82 52.92 52.10 52.55 53.37 53.01
40.63 42.17 45.59 44.06 44.62 43.68 44.35 44.98 45.59 50.03 47.33 44.28 43.25 38.05 37.95 42.70 42.26 42.80 46.56 43.86 44.89 48.29 52.04 53.50 55.03 55.27 56.61 57.66 58.02 58.20 58.30 58.21 57.49 56.86 56.19 54.38 53.06 52.47 51.01 49.71 50.46 51.46 51.65 51.82

GFSNW_sfc_wetblb_003.txt.gz
Wetbulb
52.30 52.45 51.70 50.96 50.20 49.00 49.08 49.52 45.61 55.92 57.23 45.95 45.88 42.58 46.17 47.01 48.09 50.06 48.79 49.29 47.33 45.72 46.72 45.49 46.60 47.74 50.20 53.50 54.06 49.86 51.67 48.42 44.16 47.59 52.70 53.71 50.00 47.90 46.11 41.03 41.28 44.04 45.55 47.34
52.10 52.25 51.37 50.60 49.73 48.93 45.19 45.11 49.60 57.00 55.32 42.70 43.57 46.07 46.41 47.94 47.55 48.16 47.93 47.90 49.11 48.28 45.61 43.59 49.12 50.72 53.99 54.39 53.45 51.01 53.34 44.74 40.59 43.73 48.48 50.83 48.28 49.46 48.66 48.15 46.95 41.94 41.28 45.31
52.01 51.91 51.32 50.61 50.06 49.03 46.49 46.32 46.01 50.55 53.02 51.10 47.39 45.84 46.21 46.19 50.11 48.43 49.47 48.51 49.34 47.10 44.95 46.89 47.11 48.65 53.17 54.17 56.33 61.83 56.28 49.10 44.02 41.43 46.39 50.47 49.63 51.12 49.84 46.45 42.03 42.16 43.48 49.78
52.08 51.57 50.94 50.61 50.16 49.01 47.44 48.96 48.17 49.60 45.32 47.27 48.55 48.62 46.84 45.57 46.56 51.51 49.85 47.99 48.41 46.44 42.60 44.40 45.77 48.97 49.46 52.32 58.39 52.45 51.76 46.12 47.97 50.81 52.69 52.23 52.60 51.62 52.42 48.01 46.91 44.86 46.51 51.46
51.04 50.81 50.54 50.50 49.70 48.54 48.63 46.55 45.34 47.67 46.18 48.80 47.98 47.45 47.78 47.78 47.56 49.45 49.00 46.98 48.48 48.07 44.57 47.30 45.98 48.04 47.51 49.32 53.03 48.35 51.28 47.39 49.08 49.15 53.83 53.57 52.21 53.59 54.07 53.45 51.12 48.33 50.90 50.31
49.51 49.64 50.13 50.20 49.23 47.94 47.32 49.14 49.36 46.55 44.92 45.66 44.71 46.26 47.85 48.60 50.03 49.49 51.58 51.24 48.25 46.79 48.27 53.57 52.75 51.54 51.43 51.75 53.32 51.06 50.82 48.07 47.92 43.54 51.80 52.02 46.86 52.71 54.29 53.62 53.79 50.56 48.59 51.92
48.69 48.89 49.60 49.86 49.23 48.23 44.91 48.04 46.36 44.20 41.41 44.37 44.85 48.08 49.88 49.59 50.92 50.05 52.80 52.13 50.34 53.70 56.84 56.02 54.73 52.20 51.59 53.95 53.78 54.31 52.84 53.16 48.12 44.38 48.22 40.51 50.06 55.68 56.24 55.16 57.25 57.02 55.34 55.19
48.19 48.47 48.99 49.06 49.05 48.94 44.50 47.76 45.96 44.02 40.85 44.52 45.90 47.58 47.14 50.19 51.27 51.27 52.58 54.33 55.65 55.43 53.48 48.34 46.84 46.66 47.13 50.80 53.10 52.58 54.64 52.40 47.45 44.91 43.91 49.05 51.95 55.48 53.52 53.51 55.27 58.97 55.40 56.50
47.88 47.95 48.52 48.14 48.83 48.57 45.46 46.99 49.82 44.92 41.47 43.09 46.10 45.86 48.46 46.15 46.30 49.18 52.89 55.95 56.18 54.09 49.29 46.60 40.97 40.96 45.08 45.44 48.36 52.03 51.48 52.93 49.52 46.00 41.42 41.04 49.41 56.49 59.58 57.83 49.59 60.87 58.89 56.97
48.35 47.97 48.37 47.98 48.08 48.08 45.67 45.41 50.15 44.57 40.96 45.52 46.30 45.46 43.69 47.87 47.43 47.31 51.06 51.84 53.18 53.01 46.09 42.75 41.87 42.18 47.89 44.21 44.11 44.28 46.00 46.37 46.45 45.75 43.95 47.84 54.90 58.25 60.04 47.68 50.71 61.41 59.68 59.08
47.10 47.22 47.64 47.69 47.62 47.55 45.12 43.82 49.75 44.21 39.97 42.04 45.78 47.15 45.53 46.01 47.61 46.27 49.73 50.25 49.99 50.16 44.48 43.63 43.65 42.92 45.41 45.93 48.63 48.06 45.47 43.06 42.72 45.31 42.79 40.87 63.00 60.69 55.08 58.87 61.81 61.75 62.43 60.63
47.02 47.43 47.23 47.31 46.98 46.71 46.24 42.35 46.92 46.84 40.53 41.00 46.08 46.49 47.93 48.03 48.60 44.95 51.11 49.08 49.09 52.42 48.82 47.94 48.04 45.72 48.89 48.88 44.33 54.65 47.85 50.88 49.39 49.27 49.68 57.80 60.11 61.15 62.92 63.84 61.27 61.24 60.64 61.07
46.69 46.81 46.62 46.74 46.85 46.50 45.62 42.37 44.01 44.47 41.44 43.42 44.30 45.49 51.10 51.81 50.87 50.70 43.82 51.52 53.03 52.79 53.94 50.36 48.85 47.88 48.32 46.06 47.17 50.05 51.49 55.43 51.90 51.80 54.77 56.78 58.46 59.89 61.14 62.91 62.26 62.31 61.90 61.75
46.46 46.77 46.79 46.54 46.57 46.40 46.22 42.37 45.63 44.51 41.95 38.70 45.51 53.61 52.36 55.09 53.80 53.10 52.26 52.00 52.37 53.02 53.16 49.23 46.82 45.98 50.49 47.29 50.07 47.80 51.12 54.23 50.95 52.20 55.07 55.80 57.03 59.83 60.44 60.84 61.96 61.41 61.36 60.94
46.92 46.90 47.14 46.70 46.51 46.21 45.97 45.66 46.59 47.64 41.15 37.20 40.21 46.56 50.89 52.41 53.58 52.55 52.64 51.96 51.10 49.81 48.37 46.79 46.38 50.85 49.51 49.64 48.78 47.43 51.51 51.88 49.88 48.43 56.28 53.60 56.86 58.80 60.83 58.97 59.54 59.61 59.18 58.78
47.36 47.27 46.92 47.11 47.18 46.51 44.54 44.08 48.83 49.27 47.41 40.44 37.32 48.31 50.36 53.11 53.13 51.54 50.98 51.30 51.25 50.43 48.12 47.62 49.64 53.94 49.52 44.69 43.59 52.76 55.82 57.19 56.78 53.73 57.81 59.00 59.17 59.62 60.77 59.15 59.74 60.13 59.49 58.58
47.52 47.98 48.15 48.45 47.92 45.82 44.09 43.60 47.60 49.23 50.17 41.31 38.32 42.94 51.64 53.08 52.41 50.58 49.79 51.04 49.83 49.81 48.29 47.34 48.35 48.88 50.18 45.97 41.86 50.07 52.04 55.37 57.12 56.61 54.92 54.85 57.39 56.18 60.00 59.52 60.17 59.38 59.39 58.48
47.59 48.10 48.07 48.95 48.17 46.26 44.53 49.59 49.13 48.66 45.97 43.99 38.52 42.58 47.06 52.45 48.22 47.59 50.66 47.82 49.55 49.28 48.00 48.59 47.17 48.40 48.94 42.98 48.16 50.07 53.43 54.70 54.36 55.05 56.53 56.08 55.10 56.99 59.40 59.05 58.74 57.14 56.17 56.61
47.74 47.55 48.54 48.45 47.34 46.70 49.04 51.16 50.99 50.11 46.78 41.15 42.96 40.33 40.35 51.69 49.36 50.65 50.89 51.26 44.58 49.83 45.84 46.00 47.17 45.22 43.52 47.07 48.35 50.45 51.81 50.98 53.01 54.51 56.99 56.66 54.31 56.17 57.55 57.70 57.03 55.70 55.28 56.18
47.88 46.14 45.61 44.57 51.47 53.01 52.02 47.39 45.41 45.48 45.03 44.63 40.50 45.72 42.07 47.95 47.12 47.36 48.10 49.28 45.53 41.97 45.37 48.24 44.06 42.73 47.70 50.46 51.59 52.58 53.23 53.63 54.54 52.14 52.82 53.37 51.91 53.28 54.89 56.30 57.86 56.27 56.02 57.20
46.71 44.88 43.86 48.84 52.59 48.64 46.56 43.37 41.75 44.37 41.23 44.52 44.66 45.59 43.95 50.28 44.54 44.65 48.41 44.95 46.59 40.85 43.70 43.46 42.42 41.81 46.39 50.22 51.57 52.79 54.83 54.97 54.48 54.95 54.78 57.28 54.23 52.98 53.07 56.21 57.41 56.76 56.59 56.10
42.75 42.88 45.42 47.56 46.68 45.13 41.59 41.57 43.89 42.41 41.40 45.85 44.46 46.93 48.97 48.92 51.32 46.59 47.82 44.25 45.03 39.71 48.41 44.91 40.69 45.85 49.71 52.10 51.75 52.85 54.77 54.81 54.58 55.65 54.05 57.61 56.45 56.89 56.23 57.93 56.66 56.20 56.83 57.61
47.40 44.38 43.03 43.03 44.14 34.52 37.01 36.19 40.20 42.32 47.68 48.99 47.73 46.71 49.37 50.59 49.83 45.99 46.17 42.68 41.26 48.69 43.57 42.22 45.54 49.70 52.38 53.21 55.57 54.41 53.94 55.47 55.17 54.57 55.01 54.39 59.20 59.48 58.43 57.15 56.06 56.55 55.69 55.03
42.53 40.79 31.44 36.80 36.70 38.23 40.82 41.90 42.76 46.48 46.58 47.46 46.56 45.55 47.59 49.26 46.84 47.03 40.80 45.01 46.37 41.67 40.22 41.67 47.73 50.61 52.55 53.54 54.96 56.09 54.86 53.73 53.46 53.28 53.94 55.92 57.89 58.04 57.81 57.46 56.89 55.01 52.41 52.98
41.91 41.76 33.74 37.78 42.75 45.22 45.04 46.15 45.97 48.30 47.71 46.89 45.87 46.55 48.64 46.61 44.82 46.15 44.09 41.23 39.87 41.67 40.83 45.76 50.19 52.26 51.22 52.23 53.63 54.43 53.25 56.24 55.48 53.26 57.68 57.70 57.63 57.14 56.93 56.27 55.38 54.27 52.25 49.33
42.45 41.62 39.15 43.63 43.20 42.80 44.62 45.29 44.75 48.16 47.22 47.57 49.20 43.42 40.11 40.27 42.48 41.82 40.69 40.67 39.10 41.14 46.07 49.06 51.64 51.83 52.75 53.20 54.93 53.69 50.76 51.74 57.38 57.10 56.72 56.08 54.48 53.73 52.72 53.03 52.53 53.17 52.38 53.19
39.91 39.94 45.25 43.58 44.43 44.04 44.00 45.50 46.03 50.04 46.13 44.19 43.88 37.87 37.18 41.68 40.06 41.18 45.20 41.79 43.84 46.41 48.15 50.94 52.07 52.10 52.87 54.00 55.12 55.58 55.68 55.36 54.83 54.71 53.98 52.91 52.53 52.32 51.50 50.56 51.74 51.90 52.29 52.90

GFSNW_sfc_wetblb_006.txt.gz
Wetbulb
52.12 52.12 51.35 50.66 50.03 48.94 45.15 40.69 39.58 49.87 51.80 40.93 37.90 37.61 43.67 46.04 45.68 47.53 46.17 45.68 44.08 43.03 43.73 41.38 42.05 43.65 47.37 51.40 51.18 47.23 48.70 43.49 41.46 45.38 50.23 51.97 48.77 46.15 42.52 38.09 36.96 39.84 40.90 43.88
51.99 51.45 50.78 50.15 49.48 48.71 43.01 37.02 41.16 50.76 47.99 36.26 35.66 39.60 44.05 45.39 45.07 45.01 45.11 44.53 46.33 45.36 42.00 38.93 43.83 46.61 51.23 51.41 52.47 46.96 47.71 41.74 38.49 41.98 44.66 48.42 46.16 46.45 44.21 41.90 40.52 38.62 37.59 42.09
51.28 50.98 50.52 50.15 49.50 48.90 42.19 39.39 39.80 44.02 45.38 42.70 40.15 39.24 41.96 43.55 49.22 47.20 47.06 45.44 45.04 43.17 41.10 41.10 41.64 44.04 49.12 51.02 51.73 59.94 53.46 41.84 41.84 39.72 42.09 46.93 47.24 49.78 48.30 43.86 38.84 39.39 40.92 46.33
49.98 50.64 50.47 50.21 49.31 48.98 43.65 41.72 40.88 41.69 37.70 40.80 41.97 41.54 44.83 43.64 43.27 47.05 47.51 45.55 44.76 43.09 37.09 40.07 40.46 43.40 46.12 49.52 55.38 50.81 48.25 42.60 44.69 46.34 50.23 51.29 50.69 50.14 51.01 45.14 44.86 42.76 44.31 49.30
49.23 50.13 50.26 50.06 49.08 48.38 44.64 39.79 39.47 40.97 38.99 41.40 40.27 40.60 41.53 45.00 46.60 45.38 44.41 43.10 46.83 45.00 40.21 42.27 41.25 42.44 41.00 45.69 51.33 48.19 47.37 42.21 47.61 45.35 50.83 51.74 50.69 52.11 52.80 53.05 52.97 46.95 50.52 49.53
48.69 48.95 49.68 49.60 48.91 45.73 39.49 42.38 42.32 40.27 39.54 37.34 37.05 38.84 44.22 45.91 48.00 49.36 50.98 50.09 45.56 44.47 44.77 46.06 48.79 47.80 46.50 46.81 48.61 48.60 48.98 44.03 42.82 40.68 48.22 49.09 44.60 49.30 52.19 52.56 53.52 51.23 46.77 51.17
48.34 48.45 48.86 48.51 48.69 46.85 39.21 40.08 40.52 37.88 36.78 38.57 39.76 43.33 46.62 45.93 47.63 46.16 51.13 51.12 46.16 50.78 52.66 51.66 50.19 47.14 47.54 48.44 47.25 49.64 48.99 47.51 43.73 40.81 42.97 36.87 47.64 53.07 53.83 53.49 57.76 55.44 53.07 54.10
48.01 48.49 48.50 48.08 48.48 48.57 39.50 39.78 40.20 37.64 34.10 39.58 41.61 42.44 43.94 45.10 46.09 46.88 49.47 52.23 52.70 53.43 48.14 43.78 41.79 42.07 42.92 45.48 48.27 46.74 50.22 48.14 44.79 41.46 39.86 45.19 50.04 52.68 52.21 51.41 54.39 56.91 55.14 56.54
48.69 48.03 48.04 47.84 48.12 48.20 40.56 39.39 42.99 39.18 35.03 36.54 42.13 41.06 42.55 39.02 39.32 43.36 48.76 53.05 52.82 49.37 44.10 41.82 36.56 37.62 40.66 40.91 43.56 46.50 47.36 49.10 46.04 42.87 39.54 38.59 47.15 54.02 57.34 55.02 48.43 58.53 56.65 60.52
47.69 47.55 47.62 47.83 47.90 47.66 41.54 39.09 42.07 38.72 34.31 38.44 38.83 39.02 37.76 41.63 40.46 41.49 45.82 46.58 48.92 48.37 40.67 38.73 37.31 38.17 44.28 39.77 39.29 40.69 40.22 42.22 41.98 42.60 41.38 45.23 56.51 60.38 58.71 43.87 45.28 58.44 57.37 56.63
47.23 46.98 47.02 47.38 47.29 47.11 42.12 38.58 40.48 38.53 33.80 35.81 40.21 42.71 40.42 40.76 40.82 39.85 42.99 45.42 45.77 46.94 42.02 38.69 38.61 38.78 40.72 39.95 43.96 43.03 40.29 38.38 39.71 41.92 39.80 39.55 58.28 59.58 52.91 54.93 59.58 59.35 58.81 58.72
46.56 46.76 46.86 46.64 46.62 46.62 45.28 36.14 41.25 41.26 35.62 35.22 40.18 42.30 44.06 43.57 44.02 40.15 42.26 44.67 44.20 49.50 43.49 44.06 43.08 43.73 43.75 42.95 41.54 48.70 43.52 46.28 44.99 44.52 44.00 55.60 57.27 58.70 59.75 61.89 59.23 59.34 58.55 59.28
46.29 46.22 46.51 46.58 46.39 46.06 45.15 38.30 38.27 37.88 35.27 36.78 36.35 39.32 44.91 45.07 45.20 45.93 38.45 49.56 51.12 49.94 48.37 45.06 43.91 42.23 44.40 41.21 43.71 44.89 48.84 51.29 47.72 48.24 51.83 54.30 57.36 58.16 60.68 61.05 60.36 60.83 60.86 60.19
46.90 46.76 46.89 46.66 46.51 46.18 45.77 41.12 39.13 38.48 36.03 32.23 37.05 46.70 43.22 47.67 46.12 46.35 45.19 48.60 50.74 49.97 50.40 44.98 42.55 41.89 45.82 43.03 45.64 44.61 47.60 50.19 47.95 48.91 51.61 54.40 56.60 58.77 55.95 59.01 60.93 60.93 60.34 58.94
47.13 47.31 47.40 47.21 47.04 47.06 44.55 40.22 40.92 40.66 36.80 32.15 34.79 41.64 44.55 45.77 46.20 46.68 46.56 45.23 45.43 45.73 45.45 44.67 40.85 46.98 45.45 44.67 44.24 44.52 47.35 47.27 46.58 46.52 53.08 52.41 53.65 56.84 59.53 58.47 58.38 58.88 58.46 57.40
47.33 47.40 47.58 47.58 47.78 46.86 39.93 37.96 42.93 43.03 44.78 38.86 32.15 40.36 42.62 46.23 46.58 46.66 45.13 45.47 45.09 45.35 44.62 46.08 47.55 49.76 46.66 40.11 41.49 49.72 52.92 53.60 53.56 52.01 57.35 56.94 58.40 58.94 60.10 58.94 58.38 58.84 58.31 57.54
47.18 47.64 47.99 48.16 48.53 42.07 38.65 39.84 43.98 46.72 45.58 40.36 34.71 34.97 43.61 49.05 46.17 44.25 43.74 44.89 44.47 44.77 44.78 44.17 45.13 47.20 46.11 41.30 38.20 46.08 51.02 52.49 53.61 54.40 55.31 54.18 56.71 55.93 58.98 58.35 58.33 57.50 57.26 56.50
47.22 47.71 48.04 48.25 49.01 45.61 39.13 42.82 47.68 45.35 43.65 42.75 34.74 35.96 41.93 48.78 45.96 44.67 43.67 41.99 44.30 44.05 44.98 45.37 44.08 44.05 43.82 39.21 43.22 45.82 49.26 53.82 54.13 54.05 54.82 53.59 53.56 57.06 57.60 56.99 57.14 55.73 55.17 55.21
47.11 47.60 48.23 45.12 42.10 39.89 43.66 51.65 49.84 43.55 42.60 40.07 39.60 35.97 37.33 47.40 46.07 46.35 46.22 44.89 39.41 43.45 40.54 42.70 42.97 39.73 38.56 42.66 43.96 45.31 48.42 48.34 49.46 51.47 53.14 55.08 52.76 53.44 55.85 55.80 55.57 54.42 53.95 54.75
47.81 44.00 42.66 43.58 45.14 53.30 49.97 44.33 43.19 44.26 42.50 42.72 35.33 38.12 36.35 41.90 41.08 40.46 41.75 43.60 41.41 37.12 40.98 42.43 39.53 38.38 42.04 45.43 46.37 47.32 48.08 49.38 50.02 50.02 50.01 51.02 51.35 54.16 54.64 54.85 55.10 55.53 55.07 55.49
41.77 40.60 42.76 43.74 52.82 43.91 43.84 39.79 38.95 37.98 40.17 39.32 39.00 38.31 37.72 44.41 39.52 39.34 41.59 39.34 40.70 36.38 39.20 38.83 37.10 35.72 41.08 45.03 46.34 47.50 48.75 50.21 50.12 51.21 51.98 53.22 51.73 54.38 54.18 54.81 55.92 54.91 55.40 55.09
39.34 39.88 41.87 40.99 41.21 41.47 38.51 37.72 38.31 37.99 37.80 43.03 41.79 43.81 42.76 43.60 45.34 41.40 42.03 39.39 39.73 34.84 42.20 39.70 35.16 42.95 47.13 49.77 51.07 52.28 48.87 50.42 51.16 51.74 52.26 54.04 53.39 53.23 54.00 54.59 54.75 55.06 55.53 56.00
41.60 39.01 36.02 38.49 37.49 28.05 35.29 33.69 38.03 40.46 44.59 45.47 45.23 43.27 43.67 43.86 44.57 43.02 41.44 38.89 37.85 43.14 38.88 38.13 42.39 45.44 49.00 49.38 50.82 52.09 53.19 51.81 51.83 51.38 53.14 56.63 54.45 55.11 56.35 55.87 54.56 55.27 55.30 56.45
38.10 34.81 22.77 29.45 27.73 33.07 38.21 40.47 39.71 44.85 45.36 44.78 43.53 43.02 41.05 43.20 41.00 42.56 40.48 40.58 42.58 38.08 39.16 40.50 45.66 47.54 49.17 48.61 51.02 51.48 50.66 50.98 50.80 50.74 50.76 55.20 55.48 56.91 56.71 56.81 55.90 55.04 53.71 53.25
37.16 39.75 25.65 33.63 38.42 40.25 40.82 40.37 40.29 44.67 44.02 43.02 40.18 40.83 41.65 40.64 40.14 41.99 42.10 39.68 39.00 39.68 36.82 42.16 47.60 49.12 49.43 49.88 50.94 50.95 50.67 49.20 51.89 48.56 49.48 55.12 55.82 55.84 55.13 54.60 53.96 52.76 52.26 51.13
38.51 35.74 34.72 37.37 37.50 37.43 39.72 38.64 38.52 41.98 42.61 42.66 42.29 38.61 38.17 39.20 40.67 39.71 38.93 39.48 38.52 41.07 44.99 46.85 47.20 47.26 48.33 50.04 50.80 51.54 50.76 52.87 53.23 53.25 54.21 55.11 55.84 54.91 52.34 52.81 50.60 49.69 50.28 49.57
36.99 34.35 37.58 38.26 37.07 40.34 37.57 40.45 41.75 44.18 40.98 38.38 38.39 34.63 35.93 41.19 38.77 38.47 43.58 40.30 42.67 44.78 44.72 44.31 44.70 45.91 48.05 50.06 52.42 53.66 53.04 51.49 51.56 51.32 51.19 50.86 51.80 52.26 51.52 50.70 52.45 53.47 53.76 53.86

GFSNW_sfc_wetblb_009.txt.gz
Wetbulb
51.08 51.06 50.77 50.34 49.51 48.49 43.74 37.91 40.29 48.13 46.49 37.95 35.80 36.42 41.15 44.44 43.20 44.12 43.44 43.56 42.96 41.03 41.84 39.77 40.13 41.36 45.24 49.16 48.67 46.22 45.90 41.30 40.43 43.14 48.37 50.12 45.73 43.95 41.16 38.18 36.19 36.59 38.43 40.54
50.55 50.55 50.37 49.98 48.78 48.31 43.76 35.64 38.49 48.46 46.29 34.46 33.93 38.30 42.39 43.22 42.05 42.62 42.17 42.67 44.73 43.95 40.54 37.94 41.38 44.40 48.81 48.06 46.77 44.15 45.11 39.98 37.95 40.09 43.00 45.87 44.60 44.45 41.37 39.72 37.67 36.97 36.33 39.07
50.01 50.21 50.34 49.84 48.87 48.86 41.24 39.17 39.31 42.27 43.13 39.46 38.87 38.90 42.28 43.18 48.59 45.55 45.61 44.25 44.30 42.62 39.96 39.98 40.03 42.36 46.53 47.69 48.47 59.35 51.19 39.21 40.08 39.94 41.10 44.88 45.72 48.16 45.50 41.42 37.82 37.48 38.72 40.45
49.05 49.80 50.17 49.79 49.04 48.84 42.93 40.85 38.36 39.78 36.48 39.16 38.98 39.53 43.27 44.15 43.93 46.29 44.96 43.34 43.54 41.57 36.70 38.62 39.49 42.02 43.59 47.51 53.30 50.18 45.58 41.21 41.53 42.42 45.61 49.23 49.12 49.42 48.28 44.20 42.46 41.23 42.82 44.61
48.68 49.33 49.93 49.53 48.74 47.73 41.81 38.79 38.10 38.93 37.33 38.61 37.19 38.61 39.03 42.58 45.10 43.98 43.10 43.70 47.97 45.15 38.56 40.47 40.28 40.65 39.27 42.42 47.83 47.66 47.35 40.55 45.33 42.76 49.18 49.91 48.52 50.12 51.13 50.23 49.58 45.94 45.72 45.85
48.15 48.35 49.39 48.97 48.38 44.40 38.58 39.60 39.94 39.35 38.21 36.47 36.09 36.67 42.07 44.40 45.90 47.67 49.08 48.75 46.00 43.89 45.74 47.60 45.95 43.97 46.02 46.04 45.70 45.73 47.56 41.83 40.60 38.37 46.12 46.58 41.83 47.83 50.04 50.28 52.21 50.78 47.22 48.79
48.09 48.16 47.97 47.85 48.30 45.25 37.37 38.08 38.32 36.89 33.98 37.26 38.31 42.03 43.38 43.71 45.49 44.30 49.07 49.44 45.76 49.22 53.16 50.47 46.50 45.31 44.23 45.49 45.50 47.70 46.92 44.16 40.93 39.34 40.75 35.02 44.37 50.78 52.52 53.74 56.30 54.63 52.20 53.03
48.61 47.91 48.07 47.90 48.59 48.26 38.60 37.82 38.60 36.21 32.83 37.77 39.14 40.27 40.76 41.67 42.74 44.07 47.76 50.83 51.46 50.92 46.78 43.07 40.19 40.40 39.94 43.84 46.61 45.18 47.72 45.60 42.78 39.76 37.88 42.62 47.83 50.42 50.67 48.69 51.90 53.55 53.06 55.64
47.76 47.61 47.96 47.96 48.10 47.85 38.77 37.80 39.78 37.75 34.02 33.82 40.43 38.55 40.75 36.83 36.97 41.17 46.68 50.90 49.75 48.36 41.54 40.69 34.84 35.43 38.38 39.40 41.74 43.47 46.79 46.59 44.67 41.39 38.51 37.34 44.59 55.02 59.93 55.23 46.01 54.64 55.60 57.26
47.13 47.24 47.23 47.14 47.19 47.33 39.84 37.56 38.43 36.91 32.97 36.15 36.85 36.80 36.28 39.44 38.49 39.30 42.53 43.88 47.01 48.37 38.69 37.33 36.05 37.00 41.87 39.13 38.33 37.82 38.54 39.57 39.00 41.27 40.09 43.97 54.35 57.78 58.94 43.45 44.36 55.42 59.04 58.30
46.59 46.57 46.83 46.72 46.70 46.81 40.94 37.51 38.38 36.36 31.96 33.80 38.12 40.94 37.63 38.87 39.04 37.67 40.24 43.14 43.94 45.79 41.37 38.28 36.34 36.47 38.65 38.56 44.05 41.54 38.89 37.53 37.87 39.92 39.07 39.25 56.94 56.67 49.55 52.64 57.89 56.54 57.36 57.54
46.34 46.39 46.39 46.38 46.34 46.27 43.66 35.20 39.30 39.21 34.12 33.50 37.68 40.47 42.23 42.37 41.66 38.32 37.48 41.83 42.52 46.61 40.67 41.01 41.28 41.81 42.32 41.01 39.95 46.81 42.13 44.76 41.93 41.90 43.48 53.95 57.63 58.85 58.47 59.29 57.98 56.69 57.48 58.07
47.63 47.21 46.90 46.75 46.48 46.05 44.91 37.24 36.20 36.17 32.85 34.54 34.97 38.39 42.14 40.99 42.33 43.73 36.07 43.74 47.27 45.82 47.01 44.22 42.37 38.42 42.41 39.79 41.78 42.88 46.56 49.20 47.91 46.41 51.12 54.82 56.84 57.59 58.74 59.53 59.34 59.68 59.71 58.78
47.33 46.77 46.77 47.03 46.71 46.76 45.74 40.61 37.07 36.28 33.65 33.18 35.04 43.87 40.77 44.91 42.50 42.85 44.04 43.96 46.19 46.97 47.23 45.53 41.69 38.31 43.21 40.80 43.13 42.72 45.73 47.85 46.69 46.94 50.03 53.66 56.17 56.36 55.87 59.27 60.16 59.73 58.35 57.57
46.59 46.76 47.46 47.49 47.50 46.95 44.66 38.67 39.14 39.00 35.22 31.50 33.05 38.98 41.92 43.49 42.97 43.22 42.72 41.05 42.39 43.24 42.60 43.01 42.84 41.97 43.07 43.16 41.91 42.67 45.89 45.84 45.58 45.70 51.11 50.81 52.46 56.17 58.82 57.61 57.92 57.45 56.60 55.59
47.16 47.17 47.46 47.61 47.85 47.26 39.48 36.98 40.63 40.98 41.63 37.91 31.42 37.31 39.90 43.54 43.48 42.25 41.06 40.77 42.24 43.72 42.47 43.86 44.57 48.96 45.40 41.28 37.80 46.71 50.13 51.58 51.19 51.48 54.27 54.22 55.29 57.23 58.61 56.65 58.56 58.17 56.92 55.61
46.99 47.12 47.59 47.62 47.95 40.21 38.75 38.16 42.19 45.17 44.67 39.81 33.60 33.49 40.36 45.36 44.66 42.27 42.01 42.68 42.59 42.98 42.05 42.56 43.91 46.81 48.27 42.58 38.81 44.69 51.42 53.69 54.38 55.45 55.45 53.48 55.73 53.76 58.45 58.41 57.60 56.75 56.73 55.12
46.86 46.92 47.64 48.25 48.76 45.04 38.78 40.88 46.06 44.66 40.20 42.43 34.32 34.32 41.04 45.54 41.95 41.67 41.45 39.86 40.23 40.63 41.92 43.02 41.28 42.84 44.39 40.46 45.26 46.60 47.23 50.61 53.63 54.67 53.67 52.71 51.66 54.09 55.97 56.56 56.79 54.48 53.41 53.79
46.68 47.26 47.78 44.32 41.34 37.96 40.96 50.97 48.01 42.68 41.24 38.55 38.58 35.75 36.71 44.27 42.34 43.62 46.51 42.84 37.06 40.64 39.19 40.68 41.31 38.18 38.45 43.58 45.08 46.10 47.57 51.08 50.53 51.43 52.88 53.84 52.66 54.51 54.49 54.88 55.51 53.92 52.81 53.44
47.64 44.16 41.61 42.42 43.59 50.87 49.06 42.84 42.76 43.57 42.93 41.53 33.56 35.98 37.08 40.14 40.06 39.17 40.13 41.75 39.26 36.93 39.40 40.28 37.50 36.77 40.90 47.74 47.04 46.47 46.81 50.04 47.63 47.96 47.23 50.44 50.62 52.80 53.70 53.89 54.13 54.47 54.03 53.82
40.96 37.11 39.55 40.29 48.65 42.70 43.46 39.86 38.95 39.24 39.88 38.70 36.85 36.92 35.52 41.87 38.55 38.08 39.81 38.37 39.99 37.59 39.10 37.47 34.95 37.02 45.82 48.83 49.22 49.88 50.11 47.14 47.63 50.03 50.55 52.44 51.87 52.53 53.37 53.23 53.93 54.08 53.76 52.95
38.69 39.15 41.74 39.19 39.31 40.75 36.91 37.69 39.44 37.80 37.21 41.95 40.76 42.75 39.84 42.15 43.47 39.93 40.07 38.08 38.54 34.85 41.56 41.40 36.88 45.14 46.01 47.68 48.74 50.09 50.58 51.08 49.87 49.26 50.18 52.11 52.63 52.18 53.97 53.88 53.44 54.08 54.68 53.74
40.48 37.39 34.49 36.71 36.24 27.15 33.84 34.40 38.18 39.49 44.16 45.52 44.96 42.54 41.68 42.37 43.07 40.91 39.84 37.54 37.29 43.14 38.34 38.59 43.71 47.17 47.19 47.39 48.34 49.72 51.37 51.55 50.68 49.74 50.64 52.53 52.27 53.62 54.84 54.22 54.58 54.99 54.37 54.64
36.05 32.75 21.73 28.52 26.52 31.56 35.81 37.50 37.74 43.11 45.25 44.17 43.24 41.69 39.71 41.47 38.44 41.54 40.10 41.30 41.19 36.90 36.92 38.05 43.36 43.57 45.80 47.39 48.97 49.17 49.62 51.06 49.76 50.53 50.73 53.21 52.22 52.69 55.34 55.71 54.98 54.62 54.51 53.92
35.19 36.77 25.17 32.11 36.92 38.83 39.41 39.34 38.69 42.76 41.02 40.86 39.44 39.47 39.58 39.03 38.69 40.53 41.33 38.43 38.12 39.28 37.56 42.17 46.72 47.20 47.18 46.89 47.74 48.75 49.65 50.72 50.66 50.37 48.90 52.77 53.70 52.74 51.79 52.56 53.16 53.37 53.16 52.69
36.68 35.28 33.10 35.39 35.73 36.94 39.96 38.35 37.96 40.18 39.39 40.43 39.45 34.83 35.10 38.54 39.99 38.56 37.62 38.06 38.13 40.76 44.16 46.19 46.89 44.49 45.02 45.65 47.14 49.34 51.63 50.52 51.22 48.90 53.08 53.96 54.02 52.58 50.88 51.91 52.24 52.45 51.85 50.36
36.24 34.64 35.41 34.35 34.40 35.06 37.07 38.58 40.92 42.56 39.36 36.61 35.93 31.17 35.57 40.60 37.97 37.00 42.47 40.31 41.73 43.46 44.27 46.18 44.86 45.88 46.98 46.92 49.05 52.89 51.28 50.03 51.22 51.94 52.20 51.65 52.14 52.88 51.45 50.73 51.71 52.15 51.98 52.12

GFSNW_sfc_wetblb_015.txt.gz
Wetbulb
49.33 50.19 50.11 49.67 48.96 48.18 46.52 45.41 45.02 52.09 50.63 45.71 43.11 43.30 43.81 44.38 45.64 46.38 45.75 46.35 45.65 44.92 45.01 44.79 45.07 45.35 47.54 49.63 51.74 49.64 52.24 50.14 46.71 47.96 51.13 52.38 51.67 50.88 51.56 47.65 46.02 47.06 47.64 47.66
49.63 49.76 49.65 49.23 48.47 48.27 45.27 45.80 46.56 52.58 50.60 40.54 42.35 43.16 44.07 45.61 45.94 46.28 45.86 45.45 46.38 46.85 45.44 44.90 45.04 46.03 49.52 49.37 50.48 51.30 51.68 49.18 45.66 46.58 49.14 50.76 50.68 50.52 50.59 50.52 50.77 48.31 46.12 48.19
48.75 49.32 49.70 49.29 48.53 48.30 47.16 47.16 44.51 48.25 48.32 45.68 44.28 44.37 44.72 44.17 49.74 47.54 48.06 47.12 48.59 47.32 45.89 46.23 45.31 45.91 48.20 49.36 51.01 58.36 55.21 50.08 49.58 44.71 47.17 50.59 49.99 49.50 49.61 51.67 48.75 48.69 48.79 50.98
48.90 49.35 49.59 49.42 48.70 47.88 47.28 46.37 43.21 43.68 42.63 44.35 44.48 44.96 45.77 45.24 45.76 49.83 50.41 46.77 49.43 48.18 45.38 44.76 44.90 46.04 47.85 49.48 55.68 53.12 53.90 50.23 48.80 49.71 48.67 49.16 50.85 52.35 49.21 50.79 52.90 50.32 52.68 51.09
48.92 48.57 48.83 49.30 48.39 46.96 46.41 44.82 44.45 43.97 43.43 41.88 42.90 43.29 44.49 45.18 46.61 47.89 47.32 48.08 49.63 49.55 46.64 45.87 45.64 48.47 48.58 48.10 52.02 53.39 52.80 50.78 50.25 50.01 51.55 49.10 48.55 51.13 52.72 51.99 51.13 51.42 52.39 53.27
48.15 48.09 48.07 48.81 48.09 45.65 44.19 43.64 44.69 43.97 39.39 42.12 42.61 43.90 45.21 45.51 47.28 49.14 50.59 49.26 49.37 48.64 48.87 51.39 52.71 53.03 52.56 51.72 48.98 50.68 53.18 52.61 49.96 47.07 50.70 51.13 48.33 51.97 53.28 54.34 55.30 55.08 52.64 57.36
47.96 48.09 47.72 48.42 48.14 44.30 43.41 42.28 43.14 43.43 39.25 42.70 43.29 43.86 44.37 45.62 45.48 46.04 48.54 50.30 49.96 51.85 54.29 54.37 52.07 50.95 51.19 51.38 51.05 50.60 51.93 52.14 50.58 48.53 49.97 43.07 50.89 55.12 55.78 55.24 57.65 58.33 59.51 58.82
47.38 47.68 47.81 47.47 48.04 46.51 44.14 43.06 43.48 43.11 40.00 41.84 41.73 42.54 43.75 45.37 45.96 45.58 47.30 50.11 52.70 54.04 52.81 48.99 47.91 47.44 48.27 49.77 50.99 50.44 52.53 53.39 50.69 47.43 47.23 48.90 52.22 56.34 57.21 56.10 56.08 60.15 58.58 58.28
47.03 46.83 47.06 47.39 47.08 46.51 44.28 42.36 42.66 43.42 40.73 39.65 42.05 42.13 43.34 44.19 44.66 45.66 47.51 51.80 51.73 54.27 50.50 47.57 44.01 41.99 45.58 44.85 47.48 51.07 51.79 53.16 51.37 49.01 45.34 42.95 52.03 58.50 60.73 60.30 51.65 59.46 59.82 59.79
46.81 47.28 47.55 47.41 47.17 45.97 43.86 42.25 41.98 42.58 39.11 41.57 42.90 42.49 43.63 44.59 44.15 44.39 45.62 46.31 50.12 52.18 48.65 45.45 44.10 43.97 46.83 43.85 44.97 46.68 47.89 48.93 47.26 48.71 48.39 50.73 54.71 59.19 60.30 50.50 52.55 61.11 60.93 61.48
46.96 47.58 47.44 47.44 47.39 46.72 44.10 42.43 42.96 41.37 38.72 39.98 41.11 43.32 43.11 44.11 44.73 43.40 45.05 46.08 48.70 49.85 47.07 45.87 45.91 44.46 46.89 47.62 49.57 48.01 47.19 46.43 45.60 47.79 46.92 45.64 58.64 59.37 54.56 58.82 63.08 61.91 62.32 62.51
47.64 47.32 47.04 47.44 47.04 46.79 44.01 41.09 43.38 42.78 39.58 39.88 40.90 43.24 44.47 44.21 44.61 44.49 44.22 46.36 47.23 51.31 47.99 47.80 47.99 47.35 49.14 48.07 46.09 52.51 48.06 50.78 49.11 49.15 50.19 57.11 59.70 60.13 61.72 61.52 60.25 62.41 62.92 62.65
47.25 46.83 46.77 46.45 46.71 46.85 45.92 42.68 42.39 42.15 39.34 40.25 39.72 42.48 45.72 45.11 44.66 47.60 42.75 45.80 50.05 51.22 51.79 49.77 49.14 44.85 48.58 47.76 49.03 49.94 52.73 55.13 54.65 53.64 55.71 57.30 59.36 61.13 61.43 62.36 62.96 63.66 63.86 63.19
46.51 46.36 46.89 46.59 47.15 47.36 47.23 43.26 42.93 41.91 39.16 36.34 41.92 46.30 45.09 47.22 46.10 45.51 45.61 46.64 50.67 52.03 52.40 50.20 48.35 46.43 48.15 48.05 47.90 48.83 52.59 53.92 53.04 54.31 56.75 57.93 59.41 60.14 61.19 61.91 62.02 61.99 63.07 62.15
46.86 46.34 46.66 46.59 47.28 47.76 46.02 44.81 44.64 44.28 40.25 36.61 39.81 44.57 46.33 47.04 46.64 45.45 45.39 44.43 44.52 45.92 45.96 48.53 47.76 49.43 48.23 50.08 48.99 48.35 53.05 52.62 53.46 53.37 56.65 57.75 57.96 60.01 61.30 61.43 60.61 60.79 60.92 58.62
46.85 46.68 46.89 47.24 47.20 47.90 44.58 42.92 44.29 44.54 43.80 39.18 37.38 44.59 44.71 46.77 46.69 45.38 44.32 44.34 44.20 45.50 47.18 48.02 49.39 50.43 50.03 47.69 47.16 49.57 52.63 53.89 56.32 55.20 58.21 59.30 60.54 61.21 61.68 60.96 60.93 60.88 60.79 59.63
46.69 46.92 46.90 46.89 47.48 45.46 42.66 42.85 45.63 44.18 44.95 40.87 38.83 42.20 47.36 47.35 47.49 46.35 45.36 45.32 46.43 46.86 48.28 47.37 48.06 49.26 49.80 48.61 45.25 50.52 52.38 52.91 53.99 57.54 58.30 57.65 59.03 58.51 61.06 61.53 60.90 59.43 60.39 60.18
46.79 46.69 47.35 47.16 47.53 46.46 44.73 47.46 46.68 45.65 44.22 43.81 37.77 41.11 45.36 49.47 48.43 46.92 47.96 45.64 46.30 47.10 47.79 48.21 46.82 48.69 49.36 43.90 49.24 51.25 51.73 52.83 53.65 55.10 58.12 58.00 59.02 60.15 60.09 60.55 60.28 59.80 59.09 58.42
46.63 47.48 47.98 47.21 45.11 45.04 45.51 49.75 49.05 47.89 44.20 39.27 40.28 40.12 41.58 47.98 47.68 48.84 49.89 48.13 43.77 47.17 45.02 45.69 46.99 44.89 43.10 47.10 49.71 50.82 51.97 51.52 51.19 53.65 56.93 57.67 57.49 58.05 59.13 59.58 57.46 58.58 58.55 58.79
45.80 46.68 45.11 43.66 46.37 50.23 49.42 45.73 42.37 41.87 44.05 42.80 38.51 42.02 41.44 45.13 47.02 46.36 47.04 47.91 46.65 43.20 45.79 47.09 43.68 42.87 48.85 50.40 51.32 51.80 52.26 53.29 54.34 52.82 54.81 55.76 55.26 56.84 58.55 59.17 60.06 59.79 59.48 59.29
43.07 41.87 42.75 44.05 46.31 47.53 44.32 41.14 40.31 41.00 38.63 41.43 42.78 42.23 41.95 46.96 44.91 45.38 46.57 45.36 46.08 41.48 44.43 43.16 42.33 42.22 47.50 50.10 50.57 52.11 52.81 53.13 54.00 55.29 55.26 55.09 54.04 54.96 56.04 58.79 59.93 60.05 59.79 59.01
42.56 42.12 43.81 44.27 44.05 42.35 38.89 38.13 40.46 39.82 39.24 44.40 43.56 44.56 44.23 47.13 48.90 46.49 46.68 43.63 44.63 38.92 47.72 43.64 39.70 46.06 49.15 49.79 49.92 51.31 52.11 52.10 52.75 54.63 55.15 55.70 56.09 55.60 55.83 57.91 60.23 60.55 60.52 60.08
44.54 41.70 40.60 41.05 40.17 34.24 33.95 33.02 37.44 38.74 43.92 46.74 46.71 43.84 47.50 48.01 48.47 45.64 44.92 40.79 40.90 47.21 42.76 41.68 44.18 48.04 49.62 50.36 49.95 50.85 51.96 51.38 52.34 53.43 55.33 56.03 56.40 56.48 56.34 57.64 59.76 60.68 59.85 59.83
40.22 37.83 31.46 35.92 34.10 36.77 38.50 40.05 41.64 44.60 45.59 45.55 44.11 44.00 45.40 46.92 45.84 46.60 40.21 44.11 44.54 39.74 38.50 38.84 43.44 46.32 47.75 49.37 49.59 50.06 50.44 50.95 51.51 53.07 54.22 55.12 55.69 55.73 56.87 58.11 59.35 59.48 59.30 59.22
39.11 39.35 31.90 34.96 40.00 41.14 40.55 42.52 42.18 44.27 45.20 44.96 45.02 45.41 45.53 45.64 43.31 45.25 43.14 39.97 37.61 40.09 36.70 39.76 45.00 47.26 47.90 48.56 49.43 50.16 50.68 51.08 51.72 53.00 52.68 54.22 55.24 56.23 57.92 58.79 59.73 59.92 59.45 58.67
39.24 38.61 36.95 39.87 38.77 39.89 40.69 43.11 42.06 45.24 46.60 46.17 46.05 42.55 40.51 39.66 40.31 38.92 38.98 38.53 37.63 38.85 43.11 46.05 47.68 47.88 47.87 48.62 48.73 49.54 50.41 51.68 52.77 52.35 53.14 55.21 56.68 55.22 54.80 56.43 57.12 57.63 57.98 57.24
38.22 38.33 40.78 39.78 39.33 38.99 41.91 45.09 45.36 46.30 46.00 43.06 43.02 38.33 37.49 42.84 38.26 37.80 42.10 41.33 42.24 43.62 45.15 46.45 48.58 47.36 47.33 48.72 49.60 49.88 51.51 51.82 52.85 53.15 53.82 53.47 53.80 54.97 54.78 53.06 54.88 55.89 56.51 56.69

GFSNW_sfc_wetblb_021.txt.gz
Wetbulb
50.67 50.44 50.38 50.01 49.28 48.47 51.11 56.11 50.13 56.69 57.59 48.72 50.36 48.48 51.19 48.33 50.60 51.86 50.70 51.65 50.36 50.82 51.72 51.18 51.58 51.71 54.22 55.58 55.93 53.58 55.92 54.52 51.16 52.30 55.70 55.70 55.06 54.76 55.06 50.46 50.48 52.23 51.45 49.98
50.25 50.18 50.23 49.60 48.90 48.57 53.01 54.93 53.83 56.94 56.21 46.30 48.36 51.13 50.02 50.32 50.43 50.40 49.97 49.85 51.86 52.38 50.70 50.37 52.06 52.40 54.26 53.94 55.07 54.89 56.73 52.91 49.45 51.05 53.31 55.35 52.81 53.58 54.91 56.12 56.06 52.82 50.33 51.13
49.97 50.31 50.31 49.70 49.02 48.91 52.09 55.61 48.62 52.08 52.15 53.20 51.14 50.24 49.48 48.49 50.60 50.43 50.88 50.66 51.76 51.61 51.34 53.79 51.75 51.45 52.47 53.30 54.63 60.81 60.52 54.71 52.68 48.42 50.35 54.44 52.55 52.75 53.95 54.42 51.70 51.88 51.61 54.12
49.00 50.03 50.21 49.79 48.96 48.93 52.94 55.74 53.25 53.43 47.26 49.58 50.87 51.23 50.22 48.21 48.55 51.54 52.59 50.70 50.46 50.41 49.92 51.05 50.80 52.52 52.44 53.07 55.48 55.89 57.02 53.21 54.23 54.17 53.21 53.23 53.10 52.70 53.38 52.71 53.89 51.90 53.83 53.03
48.94 49.35 50.01 49.61 48.84 47.87 54.45 52.31 52.82 52.90 53.41 52.95 50.85 48.30 49.89 48.95 49.57 51.55 49.67 49.56 50.58 50.74 50.01 51.30 50.72 52.86 53.51 53.11 55.13 55.09 57.65 53.58 54.91 52.87 53.75 52.70 51.45 52.54 52.91 53.72 54.12 54.79 55.33 54.91
48.70 48.91 49.39 49.48 48.40 48.41 54.05 54.22 56.63 54.21 49.05 50.38 49.83 50.42 50.53 50.10 51.36 52.78 54.42 52.97 51.93 51.60 53.10 55.62 57.57 58.11 58.78 58.34 56.70 55.58 56.45 54.90 52.77 50.13 52.70 52.27 50.28 52.78 52.84 53.88 56.17 55.86 53.59 57.59
48.40 48.91 49.15 49.57 48.78 47.70 52.46 52.82 52.85 50.51 48.02 49.90 49.38 49.71 50.87 50.55 51.96 51.86 53.05 54.63 53.54 57.37 59.47 58.12 57.16 56.03 55.73 56.56 56.98 58.26 56.03 56.19 54.81 50.61 52.59 45.60 54.01 57.38 56.97 54.73 55.56 57.06 58.11 59.36
48.24 49.30 49.00 49.17 49.30 48.25 51.91 52.99 51.65 50.74 47.55 50.44 50.03 50.47 50.66 52.23 53.22 52.35 52.72 54.34 58.08 59.14 56.45 52.23 50.75 50.65 51.59 52.34 53.79 55.76 56.85 54.62 50.95 48.57 47.94 51.75 53.46 55.81 55.71 54.38 54.73 58.30 57.92 60.38
48.61 49.11 48.77 48.92 49.31 48.33 51.11 52.64 52.93 51.11 47.76 48.04 49.84 49.36 51.01 50.33 51.01 51.57 52.48 56.02 58.69 56.80 53.06 50.89 46.74 45.74 49.00 48.88 50.26 54.62 54.91 56.54 51.40 50.15 46.23 44.95 53.80 57.96 61.26 59.31 53.55 60.86 61.93 62.48
48.57 48.65 48.38 48.79 48.65 48.38 48.91 52.13 53.18 50.63 47.01 50.88 49.76 47.54 49.23 51.60 51.54 50.85 53.43 53.96 53.56 56.03 50.51 48.35 48.18 47.38 51.99 47.92 48.86 50.25 50.35 51.42 47.98 47.83 47.58 49.96 57.01 62.54 63.45 52.10 56.45 66.56 66.53 65.98
47.85 48.00 48.28 48.55 48.44 48.40 48.88 51.21 52.55 49.17 48.22 49.80 48.99 50.10 50.63 51.25 51.29 49.08 53.07 52.09 52.26 52.84 48.71 48.34 49.06 49.07 50.58 50.07 52.67 52.60 51.63 49.08 48.27 48.81 47.07 45.04 60.62 61.19 56.98 63.96 67.00 67.70 68.02 67.73
48.02 47.54 47.98 48.40 47.91 48.35 48.63 50.93 53.75 51.80 46.55 48.52 51.04 51.02 51.94 52.68 53.41 51.91 54.39 52.16 54.45 53.38 50.44 51.37 51.95 50.44 52.02 51.55 47.40 55.12 51.30 54.09 52.92 52.74 51.30 63.35 64.17 65.27 66.84 67.55 66.75 67.58 68.10 68.05
48.23 47.39 47.39 47.90 47.90 48.13 48.48 49.78 51.96 51.55 48.86 49.85 49.64 49.80 52.95 52.56 52.29 54.76 49.62 52.42 57.67 56.81 58.24 55.69 54.26 51.30 54.81 49.88 50.66 52.82 56.80 58.13 55.51 55.57 57.86 61.66 63.22 65.86 67.05 67.50 67.52 68.50 68.67 68.42
47.38 47.91 47.28 47.37 47.58 48.07 48.14 50.17 52.47 51.36 49.75 45.96 50.14 54.79 52.79 55.27 54.15 52.68 53.64 53.57 57.09 57.88 56.48 52.86 52.69 51.32 55.92 52.59 54.13 54.90 57.05 58.78 56.08 55.90 61.35 61.77 64.10 64.95 65.81 66.58 67.69 67.95 68.92 68.33
46.90 47.41 47.60 47.32 47.69 48.03 49.53 52.30 53.97 55.09 48.77 46.90 49.45 52.85 53.73 54.78 53.98 52.27 53.37 53.05 52.56 52.85 51.74 50.76 50.20 53.52 54.52 54.82 54.12 52.98 56.39 56.75 53.91 54.89 61.08 61.25 61.93 64.94 65.94 65.62 66.03 67.11 66.37 65.41
46.59 46.86 47.33 47.49 47.54 47.92 50.08 49.79 54.31 57.19 53.53 48.23 47.34 53.93 52.40 54.04 54.11 53.08 53.19 53.25 52.73 52.07 51.30 51.12 52.87 56.54 54.13 49.87 49.96 55.22 57.22 58.98 59.85 57.55 61.60 62.64 63.86 64.62 65.49 65.18 65.44 66.60 66.12 65.17
46.62 46.91 47.38 47.53 47.49 49.29 47.95 47.02 49.52 49.20 53.92 48.97 47.77 48.18 53.18 54.97 54.79 54.21 53.94 55.13 52.94 51.96 51.00 50.26 51.18 52.40 52.72 50.25 48.37 56.01 56.20 58.05 59.18 59.96 60.37 60.62 61.08 61.53 64.41 65.22 65.32 64.38 65.42 63.96
46.99 47.28 47.65 47.73 47.88 48.51 49.00 52.75 49.33 50.19 50.51 51.04 47.03 46.95 49.99 55.20 50.82 49.73 53.79 51.32 51.69 51.84 50.42 51.95 50.43 51.54 51.87 47.07 51.83 54.03 55.84 57.43 57.75 58.62 59.74 60.06 62.10 62.45 63.16 64.20 64.21 63.80 62.87 62.18
47.20 47.05 47.50 50.67 49.44 47.94 49.52 49.99 49.33 53.49 50.12 47.28 48.13 45.55 44.70 53.88 51.30 52.49 51.85 53.03 48.33 52.57 49.45 49.62 50.78 48.90 46.17 50.24 51.91 52.85 54.74 55.19 55.50 57.39 58.69 59.47 58.75 59.12 60.68 61.21 62.21 62.73 62.51 61.73
47.07 47.83 48.15 45.27 49.18 50.22 49.87 51.00 47.71 47.93 48.85 50.06 47.03 52.92 46.09 51.43 51.85 49.05 50.04 50.58 47.16 45.19 47.95 52.32 48.01 48.27 52.66 53.06 54.47 56.22 56.56 56.25 57.26 55.51 55.32 56.50 57.73 58.94 57.63 58.35 59.69 62.48 62.78 63.05
48.32 47.83 45.43 50.74 49.95 51.37 47.69 44.45 44.85 45.69 45.04 48.92 49.74 51.06 47.98 53.92 47.48 49.60 52.27 49.19 50.45 44.74 48.17 47.28 45.82 46.67 51.52 54.34 54.14 56.42 56.60 57.38 57.63 58.28 58.45 58.74 59.05 57.25 58.15 56.75 57.73 58.56 63.48 62.96
46.77 47.49 50.34 53.86 48.98 45.44 42.23 43.21 46.40 44.06 42.43 49.22 47.46 49.34 51.47 51.14 54.72 50.92 50.71 46.24 49.13 42.76 51.78 47.97 44.41 50.67 54.78 54.95 54.03 53.72 56.40 56.75 56.51 57.52 57.59 58.26 58.50 59.58 59.74 58.78 58.74 59.68 62.32 63.61
51.15 48.47 46.69 44.08 43.75 35.72 37.28 38.05 42.62 41.88 47.63 52.54 52.50 48.95 51.85 54.63 54.39 50.36 49.69 44.79 44.63 51.81 44.60 44.87 47.81 51.85 52.73 53.29 53.55 53.09 54.58 55.75 57.01 57.00 57.82 58.18 58.46 59.05 59.72 59.45 59.42 60.23 60.40 62.54
45.44 43.22 34.38 40.50 39.55 41.87 45.73 47.64 45.41 52.03 52.21 51.33 48.82 47.41 48.67 52.50 49.59 51.03 44.77 48.59 50.05 43.57 41.68 42.50 50.01 51.57 52.27 53.44 54.19 53.36 52.84 53.71 54.83 55.88 57.45 57.79 58.40 58.95 59.81 60.58 60.85 59.30 61.00 62.92
43.54 44.07 35.75 40.04 45.48 48.23 46.11 47.76 48.57 50.03 51.20 48.62 48.13 48.61 47.75 47.62 45.94 48.48 47.80 43.74 41.52 42.53 43.14 48.60 51.08 52.91 52.93 53.00 53.77 53.17 52.95 52.91 53.63 56.14 56.58 57.36 57.94 59.53 60.42 61.42 61.23 60.88 61.93 62.79
46.06 45.22 42.36 46.24 43.91 44.16 46.80 48.45 47.09 52.45 50.85 49.62 48.58 45.07 43.66 42.77 44.83 42.28 41.62 41.25 41.41 45.62 51.01 51.49 52.09 51.83 52.13 52.33 53.15 52.17 51.01 51.85 51.91 53.97 56.01 57.18 57.99 59.43 60.75 62.02 62.02 62.08 63.11 62.91
43.32 44.29 47.21 46.19 46.67 45.86 47.45 52.00 50.98 52.32 47.99 45.61 44.97 40.49 41.53 45.83 42.66 41.02 46.77 44.07 48.09 47.64 48.87 50.15 52.36 51.43 51.38 52.05 51.54 50.75 51.53 51.61 53.07 54.00 55.71 56.70 59.64 62.04 61.71 60.14 62.10 62.57 62.72 62.39

GFSNW_sfc_wetblb_024.txt.gz
Wetbulb
50.96 50.71 50.80 50.32 49.41 48.67 52.37 56.07 49.96 58.00 56.74 47.95 48.63 45.84 48.70 51.13 52.45 52.83 51.35 52.12 52.17 51.64 52.80 51.93 51.15 51.37 53.73 56.71 56.86 54.32 56.32 53.79 50.80 51.95 55.66 56.37 54.57 53.36 53.92 49.83 50.37 51.66 51.34 50.94
50.62 50.60 50.52 49.96 49.21 48.85 49.58 54.38 54.10 57.46 54.97 44.06 46.03 49.28 48.97 51.02 51.47 51.18 50.62 49.94 52.25 53.06 52.16 50.38 51.65 52.83 54.82 55.85 55.01 55.18 57.11 52.79 48.36 50.48 53.49 55.23 52.80 53.56 53.44 54.27 56.57 52.56 49.55 46.89
50.75 50.47 50.54 49.97 49.54 49.00 50.17 55.10 48.81 51.16 51.37 51.57 49.61 49.86 48.91 49.35 51.99 51.03 52.19 51.39 52.57 52.17 51.08 53.09 53.13 52.09 53.46 53.98 53.84 61.19 60.25 55.70 52.21 47.58 50.56 53.59 52.43 53.52 54.12 53.12 50.50 51.12 50.85 54.85
50.30 50.58 50.58 50.33 49.79 48.96 51.18 55.10 53.26 54.03 46.36 46.44 49.00 51.20 51.58 49.32 49.10 50.82 52.40 50.58 50.93 50.81 50.19 50.91 50.89 53.04 53.60 53.20 58.66 55.91 56.25 53.12 53.46 52.71 53.12 53.53 53.14 53.22 53.26 51.92 52.70 50.44 52.38 54.07
49.75 50.51 50.71 50.24 49.35 48.22 53.49 51.24 52.17 54.50 52.24 53.30 51.01 48.83 49.79 49.28 50.65 51.16 49.75 49.85 51.27 51.62 50.38 52.14 51.21 52.25 53.53 52.14 54.15 54.53 57.07 53.36 53.80 51.50 53.64 53.33 51.39 52.33 52.80 52.43 52.87 53.52 53.43 54.46
49.02 50.24 50.54 50.26 49.03 49.02 54.18 54.23 55.14 53.43 50.77 50.74 50.26 49.58 49.35 49.71 52.17 52.35 53.78 52.92 51.62 50.97 52.70 55.53 57.38 58.01 58.80 58.77 56.55 56.79 56.96 55.00 53.31 48.95 53.01 52.63 49.71 51.70 52.40 53.26 54.24 53.51 52.03 57.86
49.02 49.88 50.24 50.32 49.34 48.34 50.47 53.73 51.72 50.15 47.89 50.81 48.96 50.04 51.34 50.70 52.29 51.81 53.29 55.15 54.62 57.45 60.35 58.92 57.43 55.84 55.87 56.58 57.14 58.40 56.83 58.04 55.53 50.44 52.79 44.74 52.81 56.41 56.27 55.33 55.70 55.55 57.21 59.48
49.41 49.62 49.24 50.19 49.61 48.89 49.96 53.80 51.32 50.94 47.69 50.36 50.66 50.79 50.73 52.48 53.59 52.49 54.20 54.64 58.41 59.30 56.98 53.08 50.54 50.05 50.96 51.66 53.20 55.27 57.27 55.40 51.38 48.83 47.94 51.09 52.84 55.23 55.22 54.99 54.65 62.09 60.66 60.16
49.23 49.08 49.36 49.30 49.73 48.73 50.35 53.29 53.39 51.18 48.13 48.30 50.78 50.30 51.78 50.34 51.39 52.09 53.46 56.48 58.85 57.15 53.18 51.05 46.83 44.99 48.14 47.64 49.67 53.86 54.04 59.66 51.77 49.98 45.67 44.05 53.47 55.81 60.28 60.42 52.56 64.23 61.15 56.59
49.21 48.24 48.95 49.43 49.30 48.93 48.99 52.16 54.00 51.04 47.40 50.77 50.25 48.43 49.25 52.81 51.82 50.75 53.31 53.55 53.90 55.68 49.90 46.33 45.94 46.00 51.02 47.36 48.48 50.28 50.54 51.68 48.59 48.11 46.37 49.10 55.90 56.88 61.48 49.81 56.71 65.92 62.98 60.30
49.11 48.49 48.28 48.91 49.12 48.98 49.16 51.81 54.55 49.49 48.06 50.42 51.05 50.62 50.05 51.75 51.83 49.38 52.84 52.97 52.92 51.91 47.18 46.99 47.97 48.14 50.66 50.45 53.54 52.43 51.14 49.20 47.85 49.75 46.86 44.03 56.65 59.67 57.53 63.92 67.15 66.89 66.90 65.60
48.61 48.82 48.21 48.41 48.73 48.98 49.23 50.93 54.43 53.68 47.39 48.21 51.88 51.46 52.07 52.08 53.98 51.82 53.46 52.89 53.02 54.32 50.33 51.01 50.04 47.97 51.16 54.33 47.83 55.98 50.11 54.71 52.03 53.18 51.92 64.52 65.31 65.27 67.07 67.36 66.82 67.37 67.73 67.79
47.85 48.24 48.39 48.02 48.08 48.46 48.40 49.22 52.86 52.64 49.68 50.46 50.18 49.45 53.61 52.87 52.16 55.28 50.25 53.94 56.18 57.16 58.87 54.86 54.07 50.76 52.54 49.43 50.59 53.43 55.99 59.15 55.42 56.18 59.48 62.10 64.43 65.66 66.05 67.20 66.62 67.73 68.12 68.26
47.82 47.63 48.09 48.07 48.10 48.22 48.20 49.30 53.37 52.36 50.43 46.11 50.08 56.24 53.36 55.61 54.45 52.21 53.40 53.53 55.39 56.12 56.85 53.33 52.31 51.48 56.19 52.41 53.93 53.00 55.37 57.93 56.61 56.59 60.69 60.15 62.85 64.31 64.74 66.09 67.46 68.20 68.62 68.50
47.45 47.41 47.66 48.04 48.20 48.36 48.65 51.90 54.18 55.58 49.38 46.49 49.32 54.00 54.43 55.20 54.82 52.86 52.35 53.12 53.23 52.60 50.66 49.47 49.11 52.25 52.36 53.70 53.89 52.33 57.04 55.90 54.34 54.96 59.86 61.17 61.65 64.10 65.09 64.91 65.03 66.52 66.50 66.43
47.32 47.21 47.48 47.83 48.19 48.33 49.85 50.57 54.70 54.85 54.13 48.07 47.08 54.62 53.79 54.08 53.79 52.43 51.99 53.05 52.92 51.85 50.53 50.46 52.26 55.06 54.14 49.95 49.49 55.69 56.91 59.60 60.21 56.51 59.65 58.57 63.58 63.53 64.64 64.12 65.26 66.31 66.12 66.25
47.17 47.40 47.59 47.84 48.07 48.01 48.51 46.94 50.96 49.28 53.18 48.84 47.25 48.25 53.05 54.59 53.56 52.74 52.56 53.95 52.41 51.83 50.52 49.66 50.78 52.14 52.82 49.77 47.71 55.03 57.25 58.05 59.25 60.18 60.03 59.10 61.30 60.43 62.90 63.73 64.70 64.42 65.56 64.28
47.11 47.59 48.15 48.33 48.40 48.59 49.08 52.71 50.43 50.01 50.56 50.91 46.78 47.60 50.39 54.98 50.11 49.58 53.65 51.46 51.87 51.37 50.17 51.08 49.87 51.06 51.72 47.28 52.42 53.81 56.05 57.20 57.59 57.97 59.14 59.49 60.27 61.72 59.77 61.10 62.99 63.52 63.97 63.31
47.17 47.63 47.90 49.42 49.12 49.16 51.48 51.13 50.67 53.65 50.79 46.89 47.61 45.39 44.59 53.72 51.56 52.94 52.63 52.32 47.69 52.09 48.81 49.06 50.35 48.81 46.38 50.55 53.44 53.29 54.14 55.23 55.12 56.88 57.16 58.17 58.04 58.89 60.70 60.92 61.55 61.65 63.04 63.45
47.01 46.92 47.40 46.36 50.92 52.15 50.94 50.88 49.72 49.09 50.43 50.03 46.39 51.02 47.10 51.64 50.91 50.27 50.62 51.30 48.01 44.87 48.78 51.45 48.25 46.99 53.13 53.39 54.47 56.15 56.75 56.46 56.09 54.19 54.04 55.86 56.78 58.43 59.56 59.17 60.30 60.29 60.56 63.37
48.20 46.74 46.97 52.44 51.83 50.92 50.61 45.36 45.00 46.84 45.26 48.49 48.37 49.79 49.67 53.87 47.62 48.86 50.60 49.44 49.78 44.61 47.18 46.97 46.49 45.94 51.79 55.20 56.29 57.13 56.13 56.18 56.15 56.73 57.16 57.19 57.03 55.57 57.56 58.86 59.33 59.32 61.52 62.14
46.64 46.18 50.33 51.63 48.41 46.34 42.92 42.29 45.98 45.45 43.37 49.31 47.64 49.68 51.01 52.39 54.55 51.14 49.77 46.92 46.91 42.47 52.31 46.85 44.09 50.57 54.81 55.29 55.34 56.01 56.80 56.49 56.63 57.04 56.27 56.42 57.23 57.81 58.25 57.69 58.91 59.49 60.48 61.61
51.26 48.11 46.32 44.43 45.32 36.01 38.38 37.87 42.54 43.42 47.54 50.57 50.50 50.06 50.90 52.58 53.27 49.90 48.44 44.59 44.77 51.01 45.55 44.50 49.25 52.51 53.95 54.84 55.46 54.78 55.83 55.78 55.81 56.19 56.44 57.08 56.89 57.98 58.37 58.39 59.19 60.73 61.39 61.79
45.56 43.04 35.46 40.46 39.91 42.84 44.39 44.68 45.87 49.82 49.91 49.35 49.96 48.73 49.81 50.40 49.88 50.03 44.58 47.90 49.03 43.60 41.16 42.39 50.41 51.67 52.33 54.22 55.10 54.51 53.39 54.49 54.54 55.06 56.06 56.47 55.90 57.20 58.26 59.06 59.60 59.03 60.29 60.51
43.84 44.06 35.52 40.20 46.15 48.67 48.48 49.59 50.52 51.11 50.81 49.57 49.01 49.20 48.77 48.45 46.99 47.43 46.65 43.90 41.87 44.37 43.97 48.11 51.01 52.74 52.98 53.23 53.89 53.55 53.74 53.27 53.80 53.95 54.13 54.72 55.44 57.21 58.39 59.88 60.99 61.15 61.40 61.29
45.29 44.71 42.59 46.18 45.42 47.05 47.53 48.45 47.82 50.96 50.35 50.97 50.43 46.44 45.26 44.52 45.06 43.10 42.52 42.26 41.12 44.76 48.68 49.36 51.52 52.51 53.37 53.35 53.36 53.32 53.81 54.07 53.48 53.23 53.69 55.18 55.67 56.76 58.85 60.37 60.93 61.87 59.44 60.42
43.08 43.33 47.27 47.39 46.52 47.83 47.75 49.36 50.13 53.33 49.71 46.20 46.25 42.32 42.20 47.99 43.41 41.91 46.15 44.89 47.41 49.42 50.30 50.82 52.60 51.60 51.32 51.53 52.08 52.67 52.49 52.26 53.18 53.03 53.09 54.99 56.79 58.15 59.15 57.98 57.02 60.94 59.96 62.45

GFSNW_sfc_wetblb_027.txt.gz
Wetbulb
51.34 50.88 50.95 50.55 49.84 48.87 50.39 52.47 48.42 57.01 55.14 45.16 45.65 41.75 46.43 48.11 48.85 51.10 49.86 50.18 49.11 48.72 50.19 49.19 47.91 48.37 53.01 54.71 54.81 50.19 52.03 48.08 44.15 48.59 53.40 54.37 51.54 48.53 48.16 42.98 41.66 43.85 42.82 44.43
51.03 50.77 50.90 50.45 49.60 48.93 45.23 48.32 53.12 56.07 53.15 40.10 41.94 45.57 46.33 47.61 47.20 48.23 49.92 49.00 50.34 50.02 48.93 47.50 52.29 52.00 52.73 53.78 53.87 50.09 51.65 45.73 41.08 44.08 48.40 51.41 49.27 50.15 46.94 46.38 45.72 41.40 40.31 44.02
50.58 50.92 51.07 50.57 49.88 49.29 46.90 48.77 47.65 50.25 50.21 48.46 44.99 45.11 47.10 47.48 50.47 49.94 50.88 50.02 50.70 48.77 48.92 49.12 49.13 50.69 52.62 53.17 53.34 60.48 56.27 49.73 46.89 41.82 45.99 49.18 48.30 50.94 50.80 46.89 41.75 42.59 43.49 47.21
50.37 51.27 51.03 50.69 50.09 49.39 47.53 51.56 50.63 51.39 43.83 44.76 45.26 46.21 47.90 47.08 47.18 50.50 50.82 49.27 49.06 47.53 44.92 48.62 47.25 50.93 51.48 52.49 56.00 52.65 51.79 45.78 47.43 49.73 50.72 50.35 50.17 51.26 52.02 48.42 48.33 44.32 45.94 50.14
50.41 51.13 50.90 50.77 49.78 48.80 49.59 48.76 47.14 49.30 48.09 51.38 46.91 47.46 45.30 48.08 49.23 49.39 47.50 47.92 49.88 48.99 45.67 47.68 48.94 51.88 51.51 51.32 51.93 49.59 50.37 45.74 46.72 48.02 51.81 51.13 50.07 51.49 51.99 50.80 50.09 48.36 50.71 51.86
50.17 50.89 50.94 50.58 49.37 48.57 49.42 52.33 51.06 48.82 48.27 48.47 47.60 47.46 48.84 48.69 50.06 51.78 52.11 50.52 50.63 49.41 52.88 54.72 53.62 52.60 53.13 52.07 50.08 52.02 49.50 47.65 45.33 42.90 50.94 49.97 45.38 49.87 51.17 51.24 53.29 51.66 45.57 51.75
49.68 49.70 50.68 50.39 49.71 48.42 46.16 50.06 49.81 46.67 44.42 46.75 47.68 49.51 50.29 49.71 51.25 51.10 54.26 54.38 53.13 54.81 57.04 56.78 54.03 50.77 51.58 52.64 52.28 53.47 50.77 50.18 48.55 45.18 48.00 39.57 48.82 53.92 53.88 53.75 57.27 56.73 54.88 55.17
49.57 49.13 49.55 50.43 50.06 49.19 46.42 49.90 49.02 47.05 43.08 47.13 47.22 48.21 49.63 51.89 52.99 51.66 53.78 54.90 55.41 55.81 53.98 49.59 46.28 45.57 46.13 49.19 51.27 49.82 51.84 48.68 44.16 42.08 42.10 47.53 50.53 53.33 53.06 51.97 54.01 57.97 56.49 57.09
49.23 49.55 49.23 49.44 50.08 49.07 47.60 48.74 51.84 47.69 44.45 45.12 48.18 45.97 48.73 47.48 48.59 50.61 52.99 56.79 55.89 54.11 49.35 47.25 41.39 40.58 44.44 44.41 46.14 48.45 48.28 51.35 46.57 43.10 40.07 38.91 48.07 55.97 58.67 57.13 50.83 57.45 56.37 57.12
49.02 49.77 49.32 49.51 49.60 49.05 47.30 48.06 52.39 47.53 44.27 48.78 48.55 44.59 44.85 49.68 48.45 47.07 51.63 52.64 51.71 53.50 45.89 43.09 41.46 41.95 47.97 43.14 43.96 43.61 43.98 44.94 43.81 43.14 41.31 45.18 51.79 53.87 57.84 44.45 49.49 57.40 57.64 57.19
48.46 49.17 49.45 49.23 49.21 49.36 47.56 47.60 51.72 48.24 43.72 45.69 49.43 49.34 46.37 46.56 48.35 44.80 48.45 49.93 50.37 48.86 43.73 43.35 43.55 43.17 45.52 45.36 46.90 47.39 45.15 43.07 41.51 42.60 40.79 39.84 60.73 59.69 54.73 54.33 56.50 62.14 59.31 58.56
48.48 48.32 48.76 49.25 49.06 48.91 48.84 47.53 51.20 53.13 47.61 44.85 49.54 49.79 50.47 49.13 50.77 48.32 48.63 48.73 50.44 53.46 49.53 47.79 47.81 44.58 46.30 45.86 42.90 51.70 45.57 47.94 45.20 45.37 44.98 60.40 62.82 61.76 62.61 63.01 62.14 63.03 62.20 64.21
48.58 48.44 48.23 48.61 48.83 48.78 48.28 45.33 49.06 50.21 48.32 48.54 48.71 47.91 51.38 50.66 49.55 49.90 46.31 50.07 51.13 50.45 53.60 51.37 50.61 47.86 49.20 44.62 47.39 49.68 52.95 56.18 50.29 51.13 56.34 57.58 59.01 59.99 61.52 64.31 63.91 64.10 66.40 65.23
48.41 48.22 48.00 48.05 48.38 48.65 48.37 44.86 48.82 49.64 48.28 43.64 48.41 55.53 53.76 57.23 53.00 51.15 50.99 50.35 52.51 51.93 51.86 49.45 48.23 46.21 51.33 46.33 49.85 49.25 52.03 54.19 53.13 54.27 56.22 58.69 57.32 57.57 60.02 62.58 65.58 65.72 65.21 64.76
48.28 47.95 47.70 47.76 48.17 48.82 47.85 47.71 49.85 52.54 48.14 43.04 45.62 51.02 54.05 54.43 53.35 52.18 50.62 49.66 49.83 48.67 47.28 46.86 44.95 48.22 49.01 49.87 49.91 48.98 52.14 52.31 50.83 50.11 55.33 56.86 57.51 59.14 61.99 62.09 63.42 64.46 64.03 62.82
48.00 47.83 47.77 48.00 48.14 48.43 46.60 48.12 52.86 51.27 51.57 46.42 43.44 53.34 53.30 53.55 52.91 51.86 50.13 49.91 49.80 49.26 46.76 46.12 48.82 51.27 50.09 45.88 45.77 53.64 55.05 57.09 56.85 53.95 57.02 58.87 59.31 60.86 61.24 62.11 64.23 64.76 63.43 62.36
47.65 47.53 48.13 48.43 48.62 46.49 44.00 44.64 48.37 49.06 49.73 46.69 44.63 46.85 52.16 53.31 51.85 49.90 48.99 50.84 49.59 48.65 46.76 45.49 46.40 47.63 49.99 46.55 43.09 52.11 55.01 55.12 55.69 56.85 56.76 57.16 60.35 57.78 61.15 59.44 64.41 63.19 62.81 62.00
47.31 47.65 47.96 48.43 48.09 47.67 45.82 50.79 51.07 50.34 47.86 49.22 43.76 46.18 48.78 53.21 47.94 46.98 51.51 48.58 49.18 49.31 47.61 48.19 46.25 47.67 48.66 43.82 48.77 51.17 54.13 54.86 56.04 56.43 56.44 55.25 56.19 59.07 59.29 60.00 58.41 61.06 60.62 60.32
47.24 47.52 47.88 47.11 47.34 47.75 50.14 52.56 52.48 51.81 49.12 44.20 46.29 44.18 43.80 53.48 49.43 51.35 50.43 50.61 45.38 49.92 45.50 46.24 47.28 44.89 43.09 48.03 48.21 50.07 52.77 52.83 53.05 54.72 55.31 54.91 55.19 55.62 56.99 58.61 59.58 59.22 60.82 60.94
47.18 45.51 46.39 44.98 50.56 53.79 51.83 49.62 47.69 47.41 48.90 47.90 43.86 49.16 45.61 48.69 49.64 48.75 49.36 49.71 45.75 43.35 46.57 49.11 44.95 43.52 48.60 50.90 52.39 54.07 54.72 54.44 54.17 51.12 51.07 52.92 53.00 54.14 55.15 56.19 56.21 57.67 57.55 59.95
45.08 45.29 46.70 52.98 52.33 50.63 48.33 45.22 44.51 45.89 44.21 46.75 46.26 46.25 47.24 51.76 46.69 47.18 50.41 47.08 47.97 42.42 45.59 45.28 44.38 43.94 50.16 53.85 53.93 55.19 55.07 54.93 54.47 54.74 54.59 53.93 53.00 53.22 54.64 55.06 55.95 55.72 58.46 59.09
43.98 43.84 47.07 50.39 47.93 46.01 42.71 41.98 44.81 43.95 42.19 48.87 46.42 47.33 50.43 50.98 54.07 49.11 48.92 45.73 46.47 41.43 49.69 46.50 42.33 48.64 53.24 53.31 53.52 54.11 54.57 54.83 54.90 55.44 54.90 55.08 55.28 55.03 55.23 55.09 56.00 56.49 57.86 61.09
48.41 44.97 45.38 44.24 44.21 36.18 36.79 35.95 40.84 42.58 48.10 50.46 50.38 48.54 50.74 51.58 52.19 48.89 47.22 42.52 42.49 49.18 45.11 43.12 46.78 50.74 53.01 53.13 53.52 53.60 54.05 54.19 54.24 54.29 54.97 55.21 55.42 56.30 55.44 55.28 56.89 56.64 57.62 60.90
43.91 42.82 33.11 38.90 37.80 39.94 41.70 43.14 45.57 48.38 49.58 49.50 49.48 49.45 48.60 50.34 48.30 47.76 43.32 46.37 47.66 42.26 40.66 42.22 48.71 50.18 51.26 52.60 53.35 52.99 52.68 53.18 52.66 52.75 53.23 52.84 53.28 54.48 55.59 56.23 57.51 57.46 56.11 60.20
42.37 43.83 35.36 38.76 43.81 46.10 48.08 49.09 47.93 50.97 51.72 49.80 48.74 48.90 49.36 47.50 46.14 46.57 45.88 42.80 40.47 43.00 42.36 46.92 50.91 52.11 52.37 52.33 52.78 52.72 52.40 52.29 52.37 53.66 52.51 52.15 52.37 53.11 54.58 56.59 57.46 56.59 57.56 59.58
44.75 44.39 41.29 45.41 44.39 44.09 46.47 47.80 47.69 51.61 51.22 51.03 49.76 46.20 44.81 43.67 44.86 43.22 42.06 41.57 40.03 42.15 46.08 49.27 51.53 51.31 51.26 50.86 51.01 51.11 51.55 51.55 51.90 52.31 52.29 52.48 52.38 52.47 53.64 55.80 56.14 57.33 56.53 58.17
42.89 42.32 46.83 45.78 45.22 46.23 47.20 49.95 47.45 52.22 49.90 46.01 47.09 43.00 42.12 47.31 42.95 41.82 45.81 43.41 44.60 46.55 48.14 50.46 51.91 50.00 49.78 50.00 50.17 50.99 51.65 51.90 52.16 52.18 52.95 52.88 53.29 53.38 54.35 54.49 53.23 54.27 55.20 56.82

GFSNW_sfc_wetblb_030.txt.gz
Wetbulb
51.04 51.16 51.36 50.74 49.97 49.08 45.67 42.71 43.39 51.16 50.18 40.10 37.26 36.70 41.40 45.59 45.25 46.59 45.06 46.46 45.46 45.90 47.65 46.26 46.92 44.08 47.49 52.39 52.35 48.04 48.09 44.21 41.95 45.64 51.33 52.28 47.37 45.40 42.24 40.17 38.26 39.17 39.00 41.35
50.93 51.18 50.96 50.44 49.56 49.03 42.85 39.44 45.37 50.67 47.74 34.95 34.58 39.00 43.52 44.25 43.58 44.19 44.09 45.44 48.00 47.15 46.37 44.19 48.52 48.96 51.04 53.63 51.50 49.76 48.39 41.88 39.12 42.81 45.38 49.19 47.08 48.14 43.99 41.80 39.70 38.68 37.17 39.52
51.12 51.25 50.98 50.48 49.91 49.46 42.59 41.82 43.19 43.65 44.03 40.37 38.80 36.64 41.63 43.63 49.91 46.30 46.34 45.83 47.04 44.98 44.35 45.85 44.93 47.10 51.81 51.88 51.84 58.96 53.69 44.02 42.12 39.24 42.26 46.50 45.74 48.18 48.40 43.73 39.49 39.46 41.11 44.22
51.08 51.22 51.06 50.88 50.09 49.75 44.01 43.65 44.28 43.08 39.26 39.78 39.71 38.65 41.93 41.97 42.85 47.98 46.53 44.33 45.65 42.95 39.83 43.12 46.19 48.88 50.18 52.19 54.12 50.05 47.54 43.52 44.42 45.30 48.72 48.37 48.45 48.99 49.40 46.12 45.41 42.72 46.50 46.22
50.59 50.90 50.84 50.84 49.87 49.12 45.05 41.30 40.06 41.98 41.01 44.03 43.39 40.60 40.18 43.04 44.40 45.70 44.74 44.50 47.19 48.60 45.14 45.27 45.04 47.99 47.47 47.08 51.30 45.46 45.57 42.92 44.28 43.20 50.73 49.92 48.63 50.13 50.34 49.89 51.24 47.32 49.04 48.60
49.73 50.50 50.76 50.66 49.46 46.68 41.19 44.29 44.96 42.27 41.75 41.10 41.29 43.56 45.48 46.46 46.52 48.66 52.35 50.84 47.64 48.21 49.84 50.89 50.25 47.44 47.93 48.44 48.10 48.04 47.82 43.46 40.92 38.21 48.05 48.68 43.25 47.99 48.97 51.07 53.52 50.84 45.16 48.99
49.56 50.25 50.54 50.51 49.78 48.09 40.74 41.73 42.23 39.75 38.99 41.03 41.66 44.06 45.92 48.30 48.69 49.19 51.68 51.29 48.31 51.56 54.14 53.43 50.76 47.67 48.37 48.72 47.06 50.23 47.86 46.16 45.32 42.27 45.25 36.89 47.14 52.55 56.79 54.64 55.30 54.99 54.04 53.94
49.17 50.22 49.95 50.59 49.99 49.37 41.48 42.15 41.65 39.14 36.06 41.70 42.74 43.57 44.73 47.95 47.16 48.33 50.55 52.25 51.83 50.84 49.92 45.87 42.10 42.28 42.66 45.75 46.88 46.19 50.05 44.20 41.12 39.86 38.55 43.97 48.18 54.09 52.43 50.77 51.64 55.98 55.58 56.52
49.00 49.73 50.04 49.95 50.07 49.18 42.30 42.24 44.17 39.70 36.92 38.53 43.78 41.27 42.53 40.91 41.18 44.69 49.30 52.30 51.55 50.40 44.87 42.94 38.08 36.48 39.98 40.96 43.51 45.42 45.79 45.89 42.37 39.26 36.88 36.81 45.71 54.34 57.17 55.92 47.37 56.72 56.69 56.88
49.12 49.07 49.20 49.80 49.80 49.04 44.19 41.82 43.98 39.83 35.72 40.00 41.57 39.51 39.43 42.84 43.48 42.95 44.43 46.61 48.71 48.01 40.96 39.13 37.48 38.24 43.34 39.33 38.90 38.41 38.73 39.15 40.01 38.70 37.77 42.28 49.64 51.85 55.85 43.20 44.66 56.67 56.87 57.02
49.17 49.03 48.98 49.13 49.72 49.49 45.79 42.26 44.69 42.55 35.78 38.01 42.94 44.30 39.76 40.63 42.19 41.35 44.99 46.15 46.94 46.84 40.26 39.05 38.55 38.15 40.51 39.63 41.19 40.68 40.87 38.12 38.05 38.56 37.30 37.14 57.82 58.67 49.56 52.31 56.49 56.76 57.76 57.87
49.28 48.93 48.77 48.66 48.95 49.07 48.14 39.59 44.61 46.32 41.54 39.98 42.90 46.24 47.28 45.15 44.38 43.45 42.55 44.05 42.78 49.00 47.37 45.98 44.61 40.50 41.67 39.95 37.96 45.42 41.18 43.24 41.49 41.53 41.22 53.74 57.33 57.29 58.15 58.09 58.75 59.40 58.24 59.60
49.09 48.80 48.66 48.51 48.37 48.56 47.16 39.93 41.38 42.89 40.35 41.27 41.24 42.82 46.39 44.05 43.90 45.38 42.03 43.31 45.63 44.56 48.12 47.02 46.58 44.95 46.22 39.86 42.02 44.15 47.76 50.91 47.48 49.54 53.80 53.59 55.61 58.84 60.36 62.10 62.44 63.12 61.58 60.80
48.87 48.57 48.43 48.19 48.05 48.41 48.21 39.72 41.13 41.17 40.87 36.38 40.52 49.88 46.67 49.07 47.74 45.75 45.45 45.47 45.74 46.14 47.17 44.54 43.78 42.24 44.50 40.67 42.51 44.05 47.77 50.07 49.77 49.78 53.10 55.45 56.22 57.18 58.78 62.43 64.32 63.92 63.65 63.09
48.55 48.31 48.20 48.12 48.16 48.47 46.37 41.71 42.55 44.30 41.55 36.74 38.71 44.76 47.57 48.16 48.48 46.29 44.52 43.84 42.82 43.16 42.24 41.58 41.04 43.05 44.67 44.45 43.88 45.67 48.27 49.12 47.22 47.78 52.79 53.80 55.49 56.61 59.21 59.85 63.32 63.24 62.52 61.52
48.34 48.07 47.81 47.93 47.79 48.18 41.02 42.10 45.55 44.98 43.97 40.61 36.41 44.59 44.95 45.62 45.91 44.37 44.02 42.92 42.92 42.76 41.31 40.53 42.49 45.20 44.39 40.15 41.18 49.78 49.90 52.14 53.09 51.27 54.43 54.95 57.37 60.61 61.02 60.25 62.91 63.00 61.66 61.24
48.11 48.00 47.83 47.91 48.16 42.85 38.22 41.16 45.28 47.41 43.82 41.26 38.39 39.26 45.27 47.08 44.01 43.40 42.29 42.24 42.80 42.31 39.68 38.84 39.74 41.51 43.98 40.66 39.29 48.48 50.10 51.90 52.21 52.40 52.92 52.79 56.29 54.84 58.43 62.71 62.96 62.19 61.78 60.85
47.93 48.01 47.97 48.06 48.01 46.16 42.21 44.48 48.42 46.37 42.15 42.36 37.25 39.56 44.84 45.10 41.13 40.36 42.67 41.14 41.20 41.53 41.75 41.05 39.44 40.51 42.11 38.69 43.18 46.71 50.27 51.75 51.75 51.80 52.58 53.11 52.22 54.07 55.56 58.96 60.58 59.85 58.90 59.24
47.98 47.65 47.82 43.69 41.83 40.96 45.02 53.08 51.14 45.44 43.96 38.94 39.79 37.12 38.30 47.65 43.59 42.96 42.92 42.77 38.60 42.82 39.80 39.16 41.16 37.99 37.34 41.18 43.82 45.09 48.76 49.76 49.92 50.78 52.05 52.26 51.90 51.70 53.36 55.17 57.38 56.99 58.65 58.92
47.94 42.73 41.78 40.63 44.91 53.64 50.48 45.38 42.96 42.57 42.70 40.86 38.03 41.61 40.41 44.34 43.12 43.52 43.60 42.58 38.56 36.80 39.98 41.62 38.89 37.29 41.53 46.20 46.52 46.97 50.06 50.20 49.92 48.25 47.27 48.70 48.83 50.08 51.12 51.71 53.51 53.83 55.26 58.68
39.36 41.09 42.78 45.40 52.14 44.82 42.95 39.74 39.98 40.48 38.84 40.02 39.45 39.11 37.86 46.41 41.29 40.90 44.82 40.70 41.77 37.25 40.04 41.99 37.39 36.24 45.74 48.89 49.56 49.98 50.57 51.40 51.07 51.06 50.56 50.57 49.96 50.13 50.37 51.46 52.48 54.10 55.28 56.31
41.81 40.36 42.55 42.56 42.59 40.38 37.93 37.21 39.90 39.37 37.09 41.31 39.02 41.01 44.34 46.16 49.05 43.46 44.09 40.05 41.49 36.69 43.44 41.45 37.45 42.86 47.14 48.77 49.57 49.58 49.43 50.74 51.23 52.01 51.31 51.57 52.18 52.23 51.56 51.70 52.66 52.99 55.10 59.10
42.88 40.26 38.87 39.72 37.51 29.93 34.31 33.55 36.44 36.98 40.64 44.91 43.65 42.82 45.76 46.98 46.34 42.84 41.11 38.51 37.77 45.69 40.31 39.66 41.42 44.94 48.48 49.33 49.23 50.21 50.40 50.52 50.37 50.78 51.21 51.07 50.94 51.81 52.40 52.50 53.50 54.65 54.59 56.47
39.43 40.55 29.35 34.03 30.94 35.41 36.29 36.93 39.51 43.66 44.32 42.98 43.08 42.37 42.28 43.38 41.51 41.74 39.64 42.40 43.82 40.30 37.62 38.63 43.44 47.33 48.79 49.71 50.66 50.10 49.06 49.96 49.95 50.42 50.98 50.44 50.34 50.30 51.29 53.12 53.95 54.00 54.35 55.34
40.22 40.88 28.86 35.15 38.92 40.11 43.08 45.04 44.48 45.92 45.24 42.93 42.85 43.28 42.38 40.67 40.55 41.35 41.51 41.17 38.51 40.84 38.82 45.23 45.45 46.87 47.16 47.12 48.02 47.65 47.72 48.11 48.25 49.14 49.91 50.42 50.17 49.81 50.08 52.12 53.57 54.66 54.90 55.00
42.16 39.87 36.91 39.16 38.72 39.90 42.34 44.90 44.93 45.68 43.87 44.35 44.94 43.01 38.88 38.13 39.17 39.28 39.63 39.08 38.73 40.98 43.06 44.98 45.60 45.64 45.68 45.57 46.26 46.80 47.77 48.18 48.45 48.99 49.54 49.87 49.39 49.20 49.04 50.54 52.53 52.34 53.38 53.66
39.90 37.20 42.25 39.55 41.15 43.02 43.01 44.14 43.24 45.18 42.66 39.23 40.12 37.59 37.77 40.71 38.83 37.43 40.87 38.55 41.00 45.37 46.67 48.45 45.11 44.54 45.22 45.99 46.44 47.54 48.31 49.28 51.01 52.08 50.43 51.45 52.36 52.39 50.70 49.11 50.81 50.88 51.34 51.95

GFSNW_sfc_wetblb_033.txt.gz
Wetbulb
50.91 50.95 51.07 50.83 50.03 49.08 43.91 41.94 41.20 48.16 45.91 38.46 33.32 35.12 39.29 44.47 42.79 43.89 43.12 43.59 42.89 42.71 44.43 43.16 44.23 41.87 46.09 50.92 50.23 46.71 46.44 42.27 40.08 44.54 48.85 49.87 46.18 43.04 40.95 38.34 37.84 36.41 36.68 38.80
50.78 50.72 50.91 50.58 49.76 48.96 42.97 38.79 41.43 49.51 45.62 35.15 33.29 36.53 40.94 43.23 41.63 41.95 41.49 42.46 45.54 44.79 42.73 42.18 46.25 47.23 50.02 50.71 49.31 46.99 46.65 40.94 38.30 41.74 44.42 46.81 46.50 45.51 42.71 39.47 37.63 36.24 36.30 39.53
49.92 50.89 50.77 50.53 49.86 49.67 42.19 42.18 42.37 42.42 41.86 37.90 37.12 35.29 38.26 41.12 47.91 45.12 44.45 43.34 43.73 42.85 42.95 44.90 44.36 46.28 50.24 50.81 52.43 58.42 51.74 40.24 41.39 39.90 41.84 45.17 44.30 46.82 45.60 41.26 38.06 37.73 39.26 41.53
49.69 50.95 50.85 50.82 50.00 49.68 43.88 43.43 41.41 41.64 38.59 38.98 38.93 37.91 39.15 39.55 40.21 45.48 45.39 41.50 43.77 41.91 38.61 42.74 44.38 48.28 50.33 52.09 54.86 48.00 46.07 42.53 41.78 42.88 47.12 47.40 46.92 47.67 47.59 43.53 42.61 41.08 42.80 43.02
49.62 51.05 50.89 50.83 49.68 48.94 44.02 39.60 38.60 40.95 38.63 40.70 41.09 39.96 37.79 40.27 41.42 42.22 43.66 41.38 47.47 46.42 43.79 44.59 42.77 44.96 45.62 45.74 50.06 44.29 44.11 42.26 42.10 41.84 48.76 48.66 47.29 48.34 48.99 49.21 50.53 46.66 47.41 46.00
49.37 50.54 51.09 50.64 49.51 45.75 39.90 41.83 43.69 41.29 40.57 38.79 37.43 38.79 40.50 42.44 44.18 46.31 51.28 49.71 47.32 46.55 48.42 50.01 48.37 47.95 46.23 47.24 46.79 47.95 46.63 41.78 39.67 37.36 46.67 46.08 40.89 46.84 48.54 51.53 52.43 49.99 43.27 47.40
49.26 49.60 50.46 50.74 49.72 47.91 40.28 40.15 41.01 39.58 38.26 39.27 39.49 42.68 44.59 44.63 44.70 46.48 51.02 49.58 46.00 49.89 51.94 50.68 48.15 45.22 44.54 47.44 45.80 47.54 45.94 44.73 42.05 39.97 41.22 34.61 44.34 55.19 54.17 53.57 54.28 53.58 51.54 52.09
49.37 49.45 49.56 50.35 50.15 49.55 39.91 39.87 39.85 37.62 35.22 40.26 41.25 42.08 41.96 45.74 44.96 47.24 49.62 49.68 49.00 47.89 48.24 44.37 41.51 41.93 43.21 45.43 46.03 46.65 46.24 42.67 39.14 38.71 37.14 41.73 49.00 54.11 50.46 48.67 50.57 55.46 53.23 54.53
49.50 49.62 49.32 49.39 50.16 49.38 40.73 40.15 41.75 38.00 36.10 38.52 42.87 41.05 40.88 38.82 40.81 43.09 47.37 50.05 48.11 46.89 43.09 42.20 35.37 35.70 39.54 40.43 44.20 43.70 44.41 43.08 41.72 37.73 35.87 35.70 43.94 52.13 56.70 52.43 42.72 56.44 56.22 54.35
49.35 49.52 49.52 49.34 49.65 49.00 43.12 40.50 41.02 38.23 35.13 37.94 40.21 39.34 39.39 39.39 39.69 39.77 43.10 45.40 48.00 46.34 40.73 38.65 37.06 38.06 42.96 39.86 38.67 38.67 37.03 37.39 37.86 38.02 36.64 41.08 47.44 53.75 54.13 40.05 41.79 55.87 56.61 55.35
49.34 49.42 49.41 49.24 49.26 49.14 45.04 40.56 41.98 41.31 36.12 37.72 41.01 44.06 40.32 40.46 39.45 37.85 42.12 44.61 47.21 47.34 39.71 39.15 37.82 36.95 39.06 38.00 39.30 38.55 38.72 36.22 35.53 36.36 35.03 35.37 57.27 57.98 47.50 48.20 53.90 55.23 55.77 55.01
49.10 49.16 49.09 48.83 48.75 48.82 46.91 36.68 41.58 42.84 39.58 39.37 42.33 45.19 46.84 44.93 44.05 40.66 41.30 43.43 42.79 46.92 45.15 43.21 42.10 39.35 39.48 37.35 36.22 43.83 40.41 41.47 38.82 39.80 39.72 52.63 55.70 55.52 56.51 55.22 56.73 57.09 56.16 56.93
48.85 49.01 48.90 48.79 48.41 48.47 46.68 38.43 38.69 40.13 38.45 39.24 39.95 41.55 44.40 43.68 44.25 44.12 40.53 41.29 44.17 43.17 46.64 45.60 43.84 42.14 42.05 36.83 39.53 41.35 45.40 48.77 46.79 48.53 51.49 52.46 54.94 58.14 60.92 61.55 60.15 62.50 60.22 59.48
48.75 48.87 48.67 48.39 48.08 48.07 47.75 38.95 38.37 38.97 38.15 35.00 39.76 47.78 44.98 48.49 43.82 43.48 43.90 44.05 43.75 44.88 46.14 43.65 43.12 40.80 42.62 38.63 39.87 40.51 45.12 48.22 48.51 50.62 52.21 53.47 54.94 56.09 57.83 60.66 60.68 63.04 62.46 61.46
48.74 48.62 48.36 48.03 47.94 48.10 45.89 40.09 40.41 41.60 40.03 35.59 37.26 42.55 44.99 45.21 46.09 45.65 41.45 41.87 40.28 41.42 41.40 40.56 40.06 40.71 41.74 42.04 43.71 45.83 47.65 47.82 46.03 46.41 51.80 52.06 53.38 56.90 59.25 60.75 61.93 62.17 61.50 60.91
48.60 48.31 48.13 47.62 47.42 47.68 39.71 41.10 43.14 43.59 42.02 37.76 34.68 41.98 43.47 44.85 44.11 43.98 40.94 41.56 40.51 39.90 39.63 38.79 39.57 42.25 41.61 38.52 40.42 48.43 49.13 51.20 51.66 50.37 52.71 54.79 57.55 59.48 59.75 60.85 62.45 62.79 62.09 61.17
48.26 48.10 48.13 47.78 47.77 41.46 36.62 40.00 44.04 46.07 42.06 39.53 37.39 37.88 43.35 44.33 42.33 41.55 40.60 40.18 40.15 40.26 37.80 37.29 37.74 39.22 41.02 38.98 37.95 48.18 49.79 49.22 50.45 53.39 52.98 53.25 55.08 54.40 59.61 61.89 62.72 61.20 61.40 60.59
48.33 48.24 48.29 48.24 48.04 45.37 42.21 43.31 47.33 45.22 40.88 40.92 35.99 37.72 41.16 44.81 39.96 39.14 39.50 38.86 39.17 39.47 38.85 38.88 37.38 38.14 38.53 36.31 41.05 43.31 49.45 50.17 49.61 50.45 50.91 52.55 52.28 54.39 56.30 60.19 61.02 59.28 59.18 59.17
48.47 48.04 47.98 42.46 40.66 39.32 42.94 52.39 49.19 43.76 42.68 38.18 37.94 35.34 36.64 45.48 41.40 39.98 41.07 39.88 36.88 40.11 37.99 37.17 39.50 35.92 34.36 38.28 41.46 42.23 45.02 49.21 48.90 50.14 50.47 50.46 50.05 50.51 53.02 55.77 57.58 55.55 57.23 57.76
48.20 41.21 40.13 38.67 42.64 50.71 48.83 43.75 41.30 40.90 40.39 39.02 36.54 39.40 39.32 42.28 41.11 41.51 41.31 40.54 36.66 35.59 38.77 39.40 36.39 35.60 38.98 45.49 46.52 44.87 45.68 48.42 48.77 47.38 46.48 46.98 48.00 49.18 48.74 49.84 52.15 51.99 53.29 58.07
38.21 38.19 41.92 43.82 47.38 43.39 41.31 37.49 37.06 38.08 37.27 38.76 39.42 38.32 36.79 43.40 40.22 39.74 42.77 39.61 39.77 35.85 38.46 37.68 34.88 35.89 44.08 47.19 46.87 48.00 49.16 49.77 49.62 49.64 49.30 49.09 48.85 49.08 49.53 50.46 51.43 51.95 52.53 54.54
40.08 39.20 41.08 40.56 41.23 38.23 35.52 34.79 37.69 37.36 36.49 39.79 38.49 39.01 39.42 43.71 46.71 41.62 41.93 38.37 39.50 35.69 41.57 39.61 35.66 42.10 45.29 46.77 47.65 47.85 47.78 49.09 49.44 49.86 49.27 49.47 50.52 50.79 50.48 50.45 51.56 52.58 52.54 53.39
40.17 39.09 37.01 38.04 36.22 28.23 33.22 31.68 34.27 35.34 39.23 43.18 42.95 42.14 43.02 44.18 46.88 42.16 39.47 37.03 36.46 42.92 38.78 38.04 41.20 44.47 46.79 47.09 49.20 50.36 50.01 50.29 49.78 50.03 50.54 49.60 49.50 50.19 50.20 50.86 52.53 53.69 53.30 54.00
38.59 39.48 28.89 32.65 29.01 33.72 34.62 35.08 36.40 41.45 43.71 43.32 43.11 42.06 41.73 42.17 40.33 40.72 38.32 40.07 41.44 37.63 35.29 37.42 45.39 46.30 47.38 48.25 48.00 47.84 47.23 47.45 47.52 48.05 49.17 49.78 50.04 49.28 49.96 50.22 51.97 52.86 53.11 53.90
39.14 41.30 33.74 34.27 37.28 38.06 40.41 41.06 42.40 44.88 45.62 43.10 41.80 41.55 40.69 39.31 39.50 39.45 39.19 38.69 36.56 39.08 39.14 44.58 47.42 47.94 45.61 45.47 46.22 45.99 45.86 46.32 46.54 47.54 48.08 48.93 49.53 49.34 48.90 49.81 50.36 51.40 53.13 52.76
40.15 38.18 36.20 38.68 38.37 39.29 39.42 41.20 42.04 45.43 44.41 42.20 41.73 41.86 37.50 36.81 37.85 37.64 37.34 37.10 37.10 38.05 40.69 42.60 43.25 43.23 44.08 44.06 44.80 45.30 45.93 45.96 46.44 46.98 47.74 48.50 48.55 48.40 48.13 48.46 49.04 49.98 51.78 51.55
38.66 36.86 38.51 37.42 37.78 39.18 41.80 42.87 43.37 45.77 42.77 38.36 40.60 36.09 36.04 39.08 36.66 36.05 39.55 38.19 40.73 42.40 44.29 44.05 43.29 43.02 43.33 43.61 44.63 45.99 46.57 46.86 46.82 48.16 50.26 51.73 51.66 52.22 50.59 48.55 49.30 49.51 49.57 53.43

GFSNW_sfc_wetblb_036.txt.gz
Wetbulb
50.44 51.10 50.97 50.79 49.94 49.14 43.17 39.60 39.49 47.87 43.39 37.67 32.09 34.17 37.26 43.33 41.05 42.18 40.53 41.79 41.19 40.71 42.05 41.12 39.35 41.35 43.79 48.83 47.99 45.62 45.49 42.20 40.23 43.97 47.92 49.05 45.70 42.66 40.80 37.92 36.12 35.04 35.72 38.61
50.57 51.12 50.94 50.52 49.44 49.22 42.59 38.07 40.27 48.06 44.15 34.38 32.57 35.13 39.13 41.12 40.16 40.27 39.29 40.71 43.18 42.92 40.17 38.95 44.26 45.26 48.09 48.78 48.18 45.77 45.68 39.87 37.44 41.14 43.35 46.39 45.78 44.17 40.98 38.18 37.37 36.37 36.59 39.67
50.33 51.21 51.07 50.62 49.76 49.69 41.59 41.96 39.98 41.61 39.91 35.96 35.01 35.32 37.11 38.57 44.97 42.74 42.61 41.19 41.89 40.69 39.49 41.55 42.34 45.56 48.80 50.45 50.07 58.52 50.99 38.78 40.09 38.33 41.86 44.63 43.97 45.75 43.94 40.82 38.61 37.43 38.58 42.29
49.80 51.01 51.33 50.81 49.95 49.43 42.64 41.12 38.39 39.43 37.39 37.31 38.19 36.40 38.56 38.26 38.38 42.58 42.90 39.79 41.36 40.34 37.54 41.10 43.28 46.96 48.61 50.78 53.32 46.46 45.15 41.19 40.07 41.86 45.17 46.24 46.46 46.71 45.79 43.44 42.30 41.88 43.26 42.32
49.67 50.52 51.08 50.95 49.78 48.51 41.69 38.35 37.05 38.80 36.95 39.12 38.58 37.99 38.71 39.65 40.60 39.53 40.71 40.47 42.91 43.43 42.43 43.65 42.88 44.14 44.61 45.52 49.23 43.49 43.57 41.01 42.21 42.00 47.93 48.15 47.18 48.09 47.58 48.35 46.26 45.58 46.95 45.61
49.69 49.61 49.99 50.67 49.51 45.57 39.21 39.89 40.70 38.65 39.52 39.19 38.08 37.76 40.82 41.31 41.33 44.77 46.47 49.36 45.33 45.04 47.53 48.71 46.76 46.68 44.69 45.86 46.18 48.12 44.95 41.84 39.89 38.33 46.71 45.47 41.38 46.30 48.53 50.80 51.99 49.62 44.61 47.35
49.74 49.82 49.65 50.43 49.74 47.11 42.17 38.16 38.78 37.30 35.90 38.99 40.35 42.23 43.03 43.68 43.65 42.12 48.66 48.26 44.23 47.29 50.61 49.56 46.30 44.43 42.71 45.22 45.11 46.71 45.24 43.61 40.44 40.25 40.79 34.11 42.92 53.72 52.79 52.33 53.66 53.17 51.39 52.11
49.65 49.86 49.76 49.99 49.97 49.15 39.36 38.55 38.57 35.71 33.70 39.72 41.50 42.02 41.72 44.19 43.83 44.16 46.76 48.40 47.27 45.94 45.68 42.61 40.56 40.31 41.32 42.98 43.90 44.82 45.14 42.50 39.81 38.57 35.76 41.09 50.02 53.21 50.13 48.18 48.70 54.32 52.23 54.42
49.55 49.73 49.67 49.61 49.87 48.95 40.14 38.86 39.35 36.40 33.80 37.22 42.65 40.82 40.88 37.96 39.16 43.05 45.11 48.22 47.41 44.79 41.63 40.76 34.69 35.33 36.93 38.41 40.36 41.46 43.70 43.57 42.21 38.07 36.68 36.33 44.61 51.18 55.65 50.13 41.31 55.18 54.42 54.26
49.25 49.69 49.60 49.48 49.37 48.92 41.16 39.63 39.12 36.66 33.09 36.38 38.81 38.98 39.01 39.38 38.88 40.29 41.42 44.12 46.65 44.47 38.53 36.76 36.36 37.21 41.27 37.75 36.61 36.82 38.06 38.07 39.19 38.90 37.90 41.34 46.96 52.47 54.75 40.88 42.02 54.15 56.39 54.89
48.86 49.44 49.37 49.28 49.27 48.91 42.73 38.88 40.13 39.69 34.98 36.98 40.58 42.75 40.19 39.85 38.07 37.22 41.41 43.28 46.03 46.04 38.10 37.51 36.51 37.30 38.94 38.35 38.84 37.42 38.00 38.32 37.76 37.89 35.64 35.70 56.17 56.83 46.31 47.75 53.86 55.75 56.02 55.56
48.78 49.17 49.08 49.08 48.86 48.68 44.83 34.90 39.57 40.90 38.42 37.74 40.81 43.65 46.58 44.49 43.11 39.30 39.56 43.78 43.31 45.81 43.08 42.01 40.65 38.53 38.71 35.72 35.41 42.95 39.60 40.49 39.56 40.57 39.25 50.34 54.72 54.83 57.94 56.00 55.95 56.30 55.83 57.33
48.68 48.89 48.97 48.82 48.35 48.31 45.88 37.26 36.90 38.20 37.17 38.35 38.49 41.58 44.69 43.70 43.36 43.14 38.78 42.04 43.76 43.61 47.17 44.70 42.94 39.73 39.69 36.43 38.84 39.49 44.13 46.44 46.80 47.68 49.87 52.38 54.56 56.00 60.48 60.94 60.17 61.92 59.10 58.65
48.41 48.70 48.61 48.45 48.02 47.77 47.19 38.43 36.88 38.01 36.79 33.90 38.93 46.07 43.41 47.07 42.43 42.93 43.55 44.07 43.13 43.54 44.99 42.47 40.62 39.72 40.02 37.33 39.22 39.69 43.71 47.45 48.96 50.61 51.65 53.16 54.25 55.81 56.26 58.66 61.64 61.87 61.47 60.67
48.34 48.53 48.41 48.23 47.75 47.57 43.41 38.64 38.82 39.92 39.30 34.76 36.93 41.26 43.74 44.77 44.17 43.04 41.54 41.84 39.75 39.61 40.11 41.18 40.81 40.02 40.27 39.50 43.47 45.55 47.90 46.76 45.36 46.15 50.94 51.13 52.40 56.28 58.99 60.44 61.61 61.87 61.18 61.05
48.28 48.21 48.06 48.09 47.76 47.35 39.01 39.89 41.20 42.02 40.99 36.14 31.71 39.97 42.60 43.83 43.38 42.97 40.77 41.07 40.30 39.43 37.91 38.04 38.21 40.63 40.87 37.87 40.75 48.26 49.16 50.19 50.51 50.72 53.64 54.51 57.42 58.84 60.32 61.97 62.43 62.95 61.17 60.88
47.95 48.19 48.16 47.98 48.08 39.81 36.19 39.50 42.77 44.16 40.78 38.12 35.86 36.84 42.24 43.17 40.48 40.87 39.89 39.23 39.90 39.65 37.07 35.88 35.81 37.75 39.99 38.44 39.19 47.92 50.08 50.57 52.51 54.78 55.22 53.60 56.05 55.59 61.01 62.56 62.56 61.02 61.11 60.63
48.04 48.31 48.63 48.48 48.14 44.80 40.31 42.84 46.84 44.66 39.14 39.46 34.80 36.55 39.92 43.13 38.82 38.10 38.67 38.15 38.29 38.97 37.85 38.23 35.88 36.26 36.28 34.10 40.36 42.50 48.94 51.11 51.78 53.04 52.32 52.79 53.26 55.01 59.46 60.42 60.22 58.84 58.60 58.62
48.20 48.37 47.61 41.45 40.02 38.78 42.43 51.33 47.96 42.56 41.80 37.03 35.96 34.24 35.95 43.82 40.39 38.70 39.46 38.67 36.06 38.73 37.55 36.70 38.63 34.54 32.93 35.32 38.52 41.73 46.49 48.42 48.96 50.32 50.60 50.64 51.81 52.64 54.85 57.14 57.01 56.22 56.43 57.94
46.95 40.37 39.71 37.84 41.67 49.94 47.96 42.17 39.97 40.07 38.88 37.32 34.59 36.95 37.54 40.85 39.97 40.79 39.98 39.10 35.62 35.13 37.46 38.38 35.76 34.40 39.07 44.62 45.13 45.84 46.63 46.25 49.08 47.14 46.75 47.94 48.37 49.68 50.60 51.39 52.26 51.97 51.67 53.72
38.62 37.22 39.09 43.23 46.10 42.10 39.87 36.24 35.97 36.40 35.09 36.12 36.80 36.90 36.81 41.16 39.25 39.12 40.78 38.47 38.44 35.07 37.09 36.44 33.76 38.14 43.07 46.09 45.83 46.62 47.69 48.73 48.99 49.24 49.31 49.26 49.08 49.24 49.86 50.99 52.06 52.67 52.88 53.21
39.24 37.78 39.66 39.37 40.07 36.93 34.51 33.20 35.79 35.73 34.87 38.01 37.23 37.59 37.99 40.81 43.92 40.47 40.18 37.62 38.55 34.48 40.76 38.92 35.88 41.13 44.40 46.09 47.58 48.13 47.98 49.13 49.29 49.65 49.09 49.72 50.59 50.92 51.01 51.04 52.06 52.99 53.32 53.71
40.05 38.32 36.21 36.94 34.76 27.86 31.61 30.94 32.94 33.63 37.45 39.88 40.55 40.59 41.73 43.67 45.58 41.32 38.72 36.26 35.54 41.49 37.98 37.54 41.43 43.82 45.93 46.25 47.79 49.03 48.73 48.30 48.28 48.80 49.95 50.37 50.51 50.87 50.72 50.14 51.41 53.06 53.37 53.84
37.53 36.55 26.14 32.10 28.70 32.42 33.66 33.99 34.81 38.61 41.37 42.28 41.73 41.46 41.38 43.23 42.06 41.91 37.06 38.87 40.35 36.58 34.18 36.82 45.23 47.77 48.48 47.05 47.30 46.43 46.13 46.60 46.90 47.56 48.77 49.04 49.32 49.70 50.55 50.40 50.36 51.33 51.69 52.73
37.41 40.80 32.62 33.01 36.05 35.82 36.72 37.96 39.08 42.41 44.96 44.00 43.75 42.93 41.79 40.67 40.83 39.63 38.82 37.96 36.09 37.72 36.51 44.88 47.61 48.99 47.45 45.20 45.47 45.36 45.42 45.72 45.86 47.09 47.43 48.11 48.92 49.37 49.54 50.34 50.26 50.22 50.78 51.33
37.86 37.56 34.22 37.42 35.90 35.83 37.72 37.83 38.53 42.88 44.86 44.08 43.30 40.16 37.97 36.71 37.34 37.45 36.74 36.22 35.79 37.31 40.31 43.21 43.94 43.99 44.02 43.95 44.75 45.00 45.55 45.81 46.03 46.35 47.14 48.20 48.55 49.51 49.53 49.56 49.51 49.86 50.14 50.43
38.20 35.50 38.23 36.68 36.10 35.97 38.76 39.96 40.88 44.93 43.11 40.13 39.65 35.98 35.57 38.71 36.05 35.67 38.57 37.08 39.38 41.80 43.34 44.45 43.39 42.74 43.31 43.89 43.98 44.93 46.08 46.46 46.57 47.34 49.35 49.31 51.52 52.52 51.82 50.78 50.08 50.35 50.37 51.40

GFSNW_sfc_wetblb_042.txt.gz
Wetbulb
50.89 51.32 51.27 51.05 50.09 49.54 49.49 55.23 50.31 55.91 56.52 48.40 50.06 47.32 47.84 44.88 47.90 49.21 48.39 48.76 48.82 48.32 49.31 49.58 50.26 49.78 51.59 53.53 54.83 52.31 55.24 53.76 50.16 51.33 55.62 55.90 55.77 54.88 55.02 50.33 50.27 50.51 50.84 50.66
50.89 51.44 51.24 50.65 49.64 49.40 54.08 55.90 53.89 56.13 55.04 44.68 45.90 47.85 46.70 47.20 46.62 47.17 47.26 46.83 48.86 50.64 49.68 48.74 50.90 52.30 53.21 53.43 54.01 53.45 55.59 52.47 49.13 50.06 53.43 55.15 53.62 54.60 56.01 56.51 55.94 51.63 48.39 50.71
50.91 51.48 51.35 50.71 50.02 49.81 52.96 55.99 48.89 50.71 52.22 52.82 48.16 46.42 46.44 45.65 48.21 47.06 48.05 48.16 49.20 48.90 48.84 51.98 51.23 52.50 53.77 55.49 54.53 58.11 59.30 53.67 51.99 47.70 51.23 54.12 52.97 53.39 54.39 54.89 51.03 52.40 51.27 53.76
50.53 51.42 51.24 50.79 50.18 49.74 52.96 55.42 51.40 51.24 46.80 47.93 50.47 50.02 48.27 45.56 45.16 48.27 49.77 48.46 48.21 48.42 48.16 49.93 50.98 54.14 55.14 56.07 56.38 55.63 56.04 52.49 53.41 52.96 53.16 52.91 53.64 53.18 52.84 53.38 54.00 51.62 52.62 53.50
50.40 50.70 51.07 50.83 49.86 48.90 54.91 52.70 51.89 53.11 52.94 50.77 50.30 46.12 48.93 47.58 48.40 48.44 46.88 47.59 49.61 50.32 49.01 50.97 52.15 53.96 55.44 54.67 56.54 56.35 57.17 53.34 53.83 51.32 52.38 52.43 51.55 53.44 53.95 53.89 54.49 54.22 54.08 54.60
50.34 50.42 50.45 50.65 49.39 49.63 52.96 54.19 54.80 51.71 46.91 50.48 49.39 49.75 48.96 48.02 49.26 50.99 50.53 50.18 50.34 51.23 52.92 53.82 56.92 58.06 57.49 58.54 57.40 56.64 56.38 54.01 53.41 48.54 52.36 52.09 49.46 53.06 53.89 54.99 56.19 55.47 53.52 59.84
50.28 50.34 50.38 50.32 49.45 48.93 53.79 51.49 52.14 50.32 49.35 50.40 50.67 48.05 48.59 48.94 49.96 49.64 52.64 54.30 53.46 55.50 57.84 58.41 58.61 56.60 56.46 56.74 58.29 60.50 57.12 56.75 54.85 49.65 53.11 45.24 54.37 58.15 56.86 56.55 57.53 59.03 59.83 61.32
50.00 50.28 50.28 50.09 49.81 48.65 52.82 53.07 51.17 49.67 48.09 50.63 49.16 48.66 48.77 51.09 52.63 51.59 51.69 54.66 56.36 58.12 55.92 54.46 53.21 52.89 53.36 54.43 55.95 57.76 59.43 57.08 52.72 50.37 49.30 52.92 55.11 58.02 57.45 56.87 56.20 60.30 60.42 61.98
49.57 50.08 50.19 49.89 49.71 48.47 54.15 51.37 53.19 50.94 46.69 48.05 48.69 48.62 48.91 49.26 51.21 52.57 53.52 56.34 58.86 56.45 55.46 53.37 49.20 46.65 50.11 50.44 52.66 56.90 58.10 59.93 54.58 52.34 48.15 46.09 55.66 58.89 61.03 59.55 53.09 61.07 62.02 62.79
49.19 49.83 50.06 49.89 49.66 48.83 51.39 51.26 52.06 50.92 46.93 50.12 49.49 48.96 47.77 49.28 50.57 51.95 53.40 51.49 55.11 57.78 53.15 50.16 48.52 47.53 51.75 47.76 49.41 51.62 53.64 54.23 51.19 51.32 50.02 52.04 58.08 59.97 60.03 50.79 54.44 61.96 62.81 63.73
48.85 49.34 49.61 49.53 49.19 48.74 49.06 51.33 50.99 49.45 48.71 49.11 48.81 48.83 48.99 49.35 50.25 48.68 51.32 52.56 54.00 55.66 51.15 50.25 50.82 49.21 51.03 51.12 52.02 51.75 51.79 50.34 50.55 52.70 49.35 47.33 60.31 60.35 55.24 60.91 64.72 64.30 64.35 64.27
48.30 48.95 49.32 49.13 48.65 48.61 48.58 49.41 51.51 51.70 48.21 49.41 52.01 51.56 52.43 51.07 50.39 48.75 51.39 51.77 50.98 51.68 53.00 54.17 52.32 50.86 51.89 51.99 47.31 54.69 50.35 55.05 52.73 53.74 53.60 60.48 63.07 63.60 65.08 65.39 64.13 64.77 64.93 65.25
47.96 48.46 49.00 48.83 48.36 48.09 47.51 49.30 50.63 51.51 49.51 50.44 51.37 51.83 54.71 55.90 54.36 54.60 48.91 51.81 50.76 51.70 54.53 54.75 53.88 50.26 53.73 49.16 51.57 53.15 56.61 58.49 56.51 55.46 59.15 61.71 63.41 64.79 65.32 65.02 66.25 66.27 65.65 65.87
47.92 48.03 48.59 48.57 48.10 47.90 47.20 50.83 52.40 51.12 50.13 46.00 50.59 55.66 53.78 55.89 55.94 53.76 53.36 51.04 52.28 51.59 52.22 53.31 53.11 51.32 53.69 52.80 52.63 53.20 56.84 58.34 56.53 55.32 60.41 61.64 63.17 64.10 64.28 65.24 66.91 66.99 66.18 66.31
48.21 47.97 47.93 48.16 48.16 47.92 49.49 53.83 54.31 53.85 48.92 46.26 49.45 53.15 54.76 55.61 53.75 52.19 52.44 52.27 51.66 48.94 47.32 50.74 50.81 52.46 53.23 55.64 55.01 53.20 58.23 56.70 53.96 54.83 61.08 62.54 63.23 64.04 65.05 65.44 65.85 66.35 66.25 66.26
48.26 47.76 47.73 48.13 48.33 48.04 50.95 49.71 53.11 55.31 52.02 48.55 46.93 52.71 53.72 54.65 54.26 53.72 53.52 53.53 51.73 50.15 47.64 48.52 51.40 52.40 52.23 50.80 51.51 57.34 58.69 59.74 60.39 59.50 63.24 62.44 63.83 64.52 66.37 65.41 65.33 67.25 66.92 66.57
48.06 47.53 47.87 48.13 48.41 48.30 47.73 47.93 50.42 48.15 52.50 48.87 46.55 49.19 54.18 54.51 54.16 55.05 55.24 53.47 52.51 50.98 48.25 47.20 49.99 52.23 51.23 52.31 49.52 57.27 58.22 59.71 61.43 62.98 62.84 61.30 62.53 63.78 66.46 66.63 65.90 64.60 66.41 66.41
47.70 47.74 48.29 48.61 48.02 47.67 48.64 53.78 50.49 49.51 49.39 49.89 46.07 49.09 50.33 54.86 51.28 50.67 54.79 52.62 52.05 50.15 50.24 49.86 47.51 50.78 51.80 47.45 53.13 55.35 57.19 58.55 60.91 61.60 61.71 60.91 63.83 65.20 64.88 65.80 64.99 63.43 63.04 63.80
47.53 47.91 47.61 48.99 48.83 49.84 51.91 50.13 49.98 53.83 50.52 46.65 47.96 46.49 46.54 54.41 53.30 54.22 52.32 53.35 47.61 52.56 47.58 48.21 48.56 46.22 44.52 49.13 51.42 53.29 55.93 56.50 58.03 59.44 61.04 60.12 60.74 62.15 63.04 62.63 61.54 59.11 59.94 59.64
46.81 46.61 47.83 45.69 50.83 48.38 51.19 50.79 49.40 49.73 49.48 48.47 45.21 51.42 48.70 53.13 51.78 50.12 52.10 51.97 49.43 45.85 48.82 51.68 46.63 46.12 51.92 52.44 54.52 55.88 56.29 56.81 57.74 56.88 58.00 58.58 59.02 59.52 59.82 59.21 59.66 59.31 59.11 59.22
46.54 47.15 48.05 50.90 47.34 51.59 49.67 45.53 44.91 46.98 43.43 46.55 47.73 47.51 47.80 54.14 49.07 49.76 53.74 49.41 51.35 44.05 47.15 46.80 46.06 45.30 51.62 53.63 55.34 57.02 57.85 58.11 58.05 58.95 59.21 59.19 59.42 59.33 58.86 58.36 58.89 59.48 60.03 60.01
47.33 48.58 48.41 51.27 48.92 47.34 43.06 42.73 45.76 43.84 43.02 47.78 46.82 47.97 47.92 52.63 55.96 51.59 51.54 47.34 50.21 42.38 51.23 46.69 43.60 50.38 53.68 54.57 54.72 55.56 56.74 56.78 56.82 57.62 57.24 57.60 57.77 58.12 58.31 58.61 58.66 58.86 59.36 59.82
49.57 48.07 45.95 46.15 44.95 36.32 36.83 36.16 41.03 43.21 47.04 50.42 50.69 47.31 48.88 52.10 54.90 51.00 50.08 44.57 44.58 52.25 46.16 45.88 48.81 51.25 53.91 54.94 55.59 55.13 55.72 55.42 55.44 55.25 55.92 56.13 56.09 56.95 56.99 57.14 58.08 58.37 58.12 58.80
45.92 43.12 35.15 39.64 37.83 40.54 42.88 45.07 46.83 48.87 51.75 52.72 52.82 50.46 49.60 52.90 49.20 50.32 43.33 48.97 49.78 42.99 41.53 43.50 50.32 53.21 53.75 54.75 54.74 54.50 53.82 54.48 54.63 54.83 55.26 55.32 55.64 56.40 57.11 57.41 57.95 57.82 57.55 58.47
43.44 43.84 36.49 39.19 46.05 46.92 49.15 50.11 49.66 50.85 52.78 52.79 51.56 51.87 51.82 49.02 46.75 49.11 46.83 42.97 40.93 44.63 45.68 49.40 52.99 54.81 53.81 51.78 51.13 52.64 54.18 54.58 54.55 55.49 55.45 55.58 56.02 56.51 57.17 58.38 58.82 58.29 57.95 57.74
44.60 43.77 41.99 45.81 45.37 45.78 47.35 49.08 49.40 53.24 53.76 54.34 52.64 47.91 45.52 44.76 47.62 43.53 42.01 41.55 41.12 47.18 50.86 52.72 53.32 52.32 52.08 52.26 53.74 54.67 54.77 55.01 55.32 55.84 56.11 56.32 56.91 56.93 57.32 58.16 58.01 57.64 57.13 56.37
42.57 43.65 47.74 47.85 48.36 48.83 50.80 52.49 52.79 55.03 51.96 48.32 49.01 43.06 42.20 49.48 44.43 42.26 48.17 46.25 49.43 51.62 53.44 54.82 54.37 53.21 53.28 54.33 54.67 55.00 54.66 53.65 53.07 53.24 54.04 55.58 56.34 57.01 56.93 55.99 56.51 56.34 55.08 54.43

GFSNW_sfc_wetblb_045.txt.gz
Wetbulb
51.71 51.98 51.92 51.56 50.53 49.73 49.61 55.79 51.29 57.12 57.19 48.75 50.73 49.79 52.56 45.27 50.87 51.89 50.99 51.07 51.40 50.79 51.63 51.37 51.80 51.25 52.96 55.62 55.26 52.40 55.51 53.65 50.86 53.17 56.38 57.06 56.45 55.65 54.79 50.76 51.13 52.43 50.65 49.52
51.56 51.88 51.80 51.31 50.26 49.96 55.54 55.54 55.28 57.10 55.58 46.72 48.62 51.73 50.23 50.78 49.92 49.90 49.86 49.42 51.02 52.25 51.42 49.97 52.41 52.94 55.12 54.55 54.30 54.08 55.59 52.54 49.86 50.96 53.97 56.00 54.37 55.91 56.75 56.75 56.35 52.80 49.51 50.05
51.37 51.92 51.86 51.34 50.58 50.43 53.73 56.50 49.84 52.05 52.00 52.76 51.11 49.74 49.17 48.69 50.81 49.81 50.32 49.97 51.37 50.47 50.57 53.09 52.36 52.64 55.00 55.03 54.77 60.63 60.37 54.67 52.56 48.96 51.78 54.57 53.41 53.43 54.71 54.64 52.30 52.59 51.67 54.24
51.07 51.94 51.90 51.49 50.66 50.53 53.84 55.64 53.36 54.81 47.64 49.11 50.71 51.45 50.02 48.59 48.60 50.35 50.77 49.46 49.31 49.75 49.35 50.44 51.19 53.35 55.02 56.68 58.76 56.84 55.99 52.93 53.85 53.79 54.06 54.71 53.97 54.05 54.11 53.05 54.52 52.41 50.82 53.39
51.01 51.73 51.71 51.49 50.25 49.19 56.13 54.01 53.05 54.00 55.48 52.75 50.42 47.92 49.94 49.37 49.84 50.44 49.49 48.77 50.19 50.81 49.98 51.71 51.94 54.51 55.12 55.29 57.39 56.69 56.92 53.08 54.45 52.16 53.63 53.51 52.70 54.21 54.75 53.87 54.62 54.62 54.41 55.21
50.88 51.03 51.62 51.34 49.82 49.14 55.74 57.65 57.78 55.17 50.60 52.29 51.00 50.75 50.63 50.32 51.27 52.39 52.92 51.59 50.43 50.29 52.28 55.26 55.99 57.10 59.02 59.32 59.03 57.44 56.91 54.96 53.30 50.21 52.87 52.55 50.06 53.16 54.69 55.17 56.16 56.36 53.60 60.15
50.70 50.87 51.10 51.14 50.08 48.86 55.98 55.07 55.23 52.29 50.06 51.39 51.57 50.51 50.64 50.42 51.63 51.17 53.19 52.72 52.67 55.40 60.06 59.71 57.57 56.20 57.05 57.78 58.44 59.77 58.18 57.80 56.00 50.67 52.95 45.76 53.20 56.82 56.59 55.85 56.75 57.83 61.38 61.94
50.19 50.80 50.78 50.89 50.57 49.39 55.91 55.82 54.55 52.70 49.98 53.26 51.87 51.15 51.06 52.48 54.04 52.66 53.11 54.70 58.30 60.61 58.05 53.34 51.78 51.36 53.54 54.70 56.54 58.74 59.21 58.36 53.38 50.09 49.36 51.84 54.91 56.69 56.45 55.56 55.00 59.52 61.16 62.49
49.84 50.38 50.65 50.46 50.49 49.40 54.03 54.81 56.09 53.65 49.86 50.03 52.29 51.09 51.93 51.29 52.52 53.79 54.25 58.09 60.47 59.63 54.89 51.82 48.35 46.61 49.93 50.32 52.86 58.16 58.71 60.25 55.73 52.94 47.91 46.23 54.30 59.04 60.76 59.63 53.79 61.37 62.88 62.81
49.46 50.10 50.42 50.25 49.93 49.21 51.14 55.44 55.98 54.04 49.51 51.93 51.28 51.11 50.71 52.67 53.06 52.64 55.86 55.66 57.04 59.88 53.10 49.92 48.63 48.44 52.24 48.65 49.97 52.59 53.67 55.37 52.61 52.18 50.54 52.89 57.96 61.32 62.38 53.42 55.29 62.56 63.42 63.67
48.90 49.59 50.06 49.95 49.65 49.24 50.57 54.35 54.73 52.43 51.02 51.71 51.32 51.41 51.17 52.12 52.69 51.10 54.34 54.83 56.91 56.12 52.11 50.56 50.19 49.86 51.70 51.77 53.98 54.77 52.75 52.20 50.77 52.54 50.61 47.64 61.06 60.74 57.05 62.20 64.58 63.71 64.03 64.65
48.64 49.00 49.65 49.61 49.24 49.03 48.59 52.77 55.55 54.23 50.87 51.45 53.42 52.89 52.99 52.68 52.65 51.47 54.72 55.63 55.58 55.76 54.51 54.40 55.55 51.72 54.08 53.27 49.14 56.55 52.37 56.92 53.62 54.24 54.77 61.70 65.01 65.69 67.24 67.32 65.61 65.58 65.73 66.81
48.68 48.64 49.33 49.29 49.03 48.80 48.10 52.22 54.46 54.51 52.17 51.93 51.94 53.26 56.77 57.73 56.72 56.86 51.94 55.27 54.54 56.74 57.45 55.91 54.53 50.02 55.66 49.42 50.95 53.38 57.23 59.20 55.80 56.75 59.53 62.41 64.33 66.25 67.32 67.70 67.41 66.75 67.28 67.16
48.90 48.53 48.71 48.79 48.89 48.76 48.11 53.39 55.37 54.75 52.46 48.13 52.39 56.57 54.94 57.48 58.25 56.57 56.55 54.83 56.64 55.31 55.49 55.34 53.72 50.92 56.33 51.94 53.75 54.37 56.73 56.64 56.08 54.86 60.31 62.07 64.58 66.16 66.52 67.42 68.35 66.95 67.28 67.27
49.10 48.55 48.36 48.56 48.63 48.92 49.99 55.60 56.63 56.28 51.88 49.18 51.01 54.31 55.56 57.36 56.72 55.30 56.52 57.48 55.36 54.00 52.91 52.20 51.82 52.51 54.32 55.39 55.07 52.68 56.97 57.75 55.18 56.66 62.94 62.56 65.15 66.37 67.12 66.63 66.72 67.39 67.42 67.58
49.08 48.32 48.22 48.30 48.63 49.31 52.46 51.41 56.83 57.76 55.64 50.90 48.04 55.38 54.68 55.64 56.05 55.66 56.29 57.06 55.32 54.17 52.17 52.27 54.04 55.30 52.45 50.21 49.72 58.10 59.38 59.97 60.65 60.96 63.66 64.96 65.90 66.43 67.47 66.37 67.48 67.77 68.01 68.18
49.00 47.70 48.05 48.37 48.60 49.55 49.74 48.99 51.82 49.02 55.39 51.45 47.87 49.11 54.45 55.56 55.48 55.13 54.67 55.91 55.25 53.01 53.71 49.88 50.88 50.83 52.95 50.41 48.15 55.32 59.07 61.09 62.94 64.42 64.29 62.44 64.50 64.43 67.36 66.13 66.66 65.54 67.64 67.48
48.29 47.84 48.24 48.62 49.01 48.39 49.39 54.40 50.42 50.71 52.83 52.30 47.34 49.84 51.15 55.73 51.79 50.81 55.76 51.86 53.11 52.32 51.38 50.52 50.44 50.92 50.37 46.92 53.81 57.51 56.24 60.35 61.40 61.44 62.30 62.49 64.54 64.96 65.02 66.04 64.22 60.55 60.18 62.91
48.06 47.96 48.33 50.58 50.33 51.20 53.37 50.84 50.57 55.82 53.19 49.10 48.56 46.39 46.24 55.64 52.13 55.29 54.73 53.66 48.69 52.90 48.71 47.60 49.78 47.56 44.33 50.99 53.09 54.58 57.22 58.19 59.65 59.79 60.35 59.42 59.84 61.94 63.42 63.55 60.20 57.63 59.11 59.35
47.92 48.07 49.67 47.97 52.70 50.78 51.88 52.40 51.14 50.75 51.52 50.66 47.04 51.20 49.69 52.50 51.31 50.53 50.87 52.78 48.72 47.00 48.83 51.60 46.66 45.93 52.97 53.66 55.15 56.35 56.55 57.22 58.75 58.09 57.49 58.31 58.25 60.19 60.92 61.96 61.38 57.43 59.05 58.67
47.57 47.87 50.64 53.60 48.77 53.19 51.37 47.51 46.38 48.35 45.59 48.55 48.17 49.23 48.19 54.33 49.48 49.74 51.81 49.81 49.31 44.69 48.16 47.53 46.08 45.14 52.15 55.94 55.23 56.79 56.90 57.76 59.10 60.61 60.79 60.55 60.97 59.95 60.09 59.82 59.90 60.41 60.73 60.57
48.01 50.58 51.74 53.91 50.63 48.96 44.56 44.05 46.73 45.85 44.81 48.77 47.15 48.26 49.94 53.65 55.73 53.00 52.11 48.32 48.67 43.77 50.63 47.84 44.05 53.07 56.05 56.30 55.82 56.14 57.38 57.66 58.05 59.04 58.80 59.31 59.86 59.92 60.03 60.22 60.28 60.85 61.11 61.41
52.42 50.36 47.64 49.20 47.47 39.51 38.87 38.06 42.50 44.50 48.64 50.89 50.67 48.62 49.70 52.63 53.84 51.29 48.72 44.56 44.62 51.30 45.86 45.23 50.49 54.93 55.66 55.85 56.36 56.56 57.26 57.06 57.16 57.21 57.57 57.79 57.69 58.69 57.93 58.81 59.73 60.20 60.18 60.87
47.44 44.61 36.13 41.78 40.04 42.37 43.59 44.70 47.51 51.43 54.01 51.41 52.98 52.03 48.78 52.27 50.86 49.89 44.79 48.67 49.05 43.71 42.47 44.59 52.27 53.41 54.06 54.85 55.34 55.38 55.64 56.66 56.63 56.72 57.20 57.16 57.31 57.84 58.83 59.53 60.30 59.96 59.51 60.03
45.35 45.87 37.81 41.03 46.91 48.76 50.44 51.16 51.95 52.32 55.21 54.00 53.19 52.34 52.20 49.40 47.70 49.44 47.14 43.64 42.59 43.84 45.64 51.19 55.39 56.23 55.54 55.63 55.80 56.33 56.26 56.63 56.92 57.56 57.54 57.58 57.98 58.18 58.64 59.96 60.23 60.03 59.78 59.62
47.06 45.99 44.07 48.19 45.55 46.22 48.08 48.94 49.66 53.38 53.77 55.21 53.37 48.75 46.61 46.02 46.31 44.03 43.49 42.38 42.13 47.15 52.07 55.26 56.75 55.95 55.75 55.73 56.65 56.09 56.57 57.20 57.00 57.41 57.70 57.86 58.21 58.38 58.45 59.13 59.49 58.38 57.29 56.87
44.44 44.70 48.62 47.96 48.62 48.11 49.83 51.78 52.79 56.09 53.69 49.52 51.90 43.81 43.81 48.86 45.90 43.00 49.60 47.41 49.27 52.71 53.90 56.81 56.96 56.08 55.87 56.31 56.36 56.67 56.39 55.96 55.53 55.72 56.32 57.18 58.48 58.97 58.64 57.72 58.21 58.57 58.53 57.82

GFSNW_sfc_wetblb_048.txt.gz
Wetbulb
52.23 52.27 52.28 51.83 51.16 49.91 50.87 55.93 51.16 58.53 57.16 48.08 49.61 48.51 51.74 52.87 52.94 53.59 51.54 51.69 50.94 51.25 51.64 51.30 51.80 50.82 52.69 55.81 55.33 52.48 54.95 52.40 50.07 51.39 55.31 56.66 55.07 53.73 53.60 49.39 51.73 52.28 51.78 50.44
52.11 52.23 52.01 51.60 50.72 50.38 52.94 54.44 54.52 58.29 54.86 44.88 46.84 50.45 51.27 53.67 52.38 51.83 51.53 49.61 51.20 52.53 51.23 50.18 52.29 53.26 55.15 55.39 54.23 53.70 55.29 51.83 47.65 49.73 53.06 56.03 53.60 53.99 55.24 56.09 56.89 52.69 48.01 50.99
51.64 52.25 52.07 51.78 50.94 50.37 51.37 55.80 50.49 52.77 52.55 51.15 50.00 50.25 50.30 50.67 52.99 51.74 52.11 51.23 51.76 50.64 49.76 52.91 51.79 52.80 54.91 55.52 54.76 61.02 59.78 54.42 52.97 46.42 51.12 53.57 52.76 53.16 54.29 54.53 52.03 52.27 52.07 53.55
51.35 52.27 52.11 51.94 51.31 50.37 50.93 55.20 53.54 55.25 47.34 47.93 49.28 51.79 51.30 49.66 49.33 51.76 52.03 50.20 49.74 49.40 48.16 49.87 50.30 52.45 53.94 55.54 60.57 56.66 56.42 54.23 52.92 52.80 53.09 53.41 53.23 53.41 53.74 51.96 52.86 50.72 53.69 54.23
51.04 52.10 52.15 51.82 50.97 49.39 53.76 53.92 53.34 55.22 53.31 53.92 50.67 48.70 48.96 49.38 50.40 51.09 49.87 49.30 50.10 50.20 48.96 50.37 49.93 51.70 53.29 53.59 56.30 55.17 55.73 53.80 53.81 51.01 52.95 52.76 51.55 53.85 52.33 55.17 53.73 53.20 54.14 54.27
50.89 51.62 52.13 51.69 50.50 49.77 56.21 56.34 56.46 53.87 51.57 51.48 50.69 50.17 50.39 50.23 52.07 52.69 52.88 52.43 51.25 50.30 51.60 53.37 53.66 55.54 56.43 58.26 57.68 58.55 57.27 54.53 54.10 48.94 51.95 51.92 49.61 52.29 53.53 53.97 55.67 54.37 53.05 57.40
50.57 51.16 51.65 51.63 50.49 49.38 53.41 56.48 54.69 52.21 48.34 51.67 50.66 51.19 51.93 50.71 51.81 50.64 52.82 53.96 52.51 54.79 59.56 58.68 57.16 55.68 55.52 56.52 57.21 58.86 59.22 60.52 55.42 50.08 53.40 45.11 53.05 56.27 55.30 54.22 56.27 59.77 59.45 60.28
50.13 50.91 51.27 51.77 50.87 50.04 52.20 56.60 54.26 52.86 49.14 52.11 51.68 51.71 51.26 52.46 53.10 51.96 52.13 54.85 55.91 59.93 57.53 52.61 50.80 50.95 52.58 52.71 54.80 56.20 57.70 58.09 53.12 49.85 48.45 51.47 52.96 55.03 54.16 53.59 54.10 61.84 58.93 59.21
49.89 50.68 51.12 50.97 50.99 49.56 52.44 56.57 55.98 54.10 50.32 50.18 53.22 52.13 52.36 50.81 51.89 53.02 53.82 55.75 59.43 58.41 54.66 51.90 47.78 44.52 48.40 47.76 50.05 55.58 56.63 61.40 54.23 52.83 47.78 45.69 54.70 59.57 59.53 60.12 53.31 58.63 56.58 55.36
49.57 49.91 50.74 50.91 50.83 49.69 49.69 54.76 56.72 54.06 50.09 52.26 52.35 50.81 51.20 53.68 52.64 52.12 55.76 56.60 55.79 57.90 52.19 48.59 47.01 46.17 50.84 46.91 48.91 51.25 52.89 55.12 51.91 51.50 49.77 52.45 59.03 58.92 61.37 52.09 53.59 60.00 60.85 60.62
49.44 49.38 50.25 50.64 50.32 50.00 49.25 54.75 56.20 53.00 51.61 52.80 52.47 52.55 52.06 52.89 52.94 49.90 53.60 54.39 55.32 54.43 51.66 50.02 49.49 49.41 51.20 51.40 54.20 53.69 52.89 52.42 51.14 53.26 50.59 48.29 63.12 58.71 52.42 55.48 57.21 63.22 63.81 68.09
49.48 49.18 49.67 50.27 49.99 49.78 49.36 52.90 56.04 55.30 50.82 52.01 54.87 53.36 53.45 53.03 53.59 51.96 54.09 54.02 56.58 55.96 53.80 53.70 54.71 51.31 53.44 53.59 48.60 57.23 51.67 55.59 49.03 55.42 54.82 59.97 64.30 64.01 67.05 67.22 67.97 66.41 66.40 66.84
49.57 49.05 49.29 49.76 49.74 49.51 48.85 51.65 55.56 54.72 51.94 52.13 51.78 51.90 55.86 56.37 56.59 57.07 52.22 55.58 55.91 56.71 56.97 54.98 54.70 52.78 54.13 48.98 49.89 53.48 57.64 55.75 50.11 54.27 59.89 60.92 62.03 66.04 66.12 67.65 66.82 66.14 66.70 66.85
49.80 49.29 49.22 49.27 49.23 49.44 48.97 52.44 55.73 54.97 53.16 48.58 52.04 57.82 54.47 56.82 57.44 56.27 56.63 55.82 57.81 57.85 56.15 53.56 53.06 51.88 55.95 52.14 51.89 51.24 54.94 56.62 55.93 58.33 60.02 61.64 63.90 65.51 67.06 67.23 68.31 65.91 66.67 67.22
49.98 49.46 49.07 48.94 48.99 49.40 49.15 54.48 56.64 56.59 51.87 48.65 51.44 54.68 55.53 56.31 56.65 55.51 55.98 56.34 55.91 55.26 53.16 52.22 50.65 55.28 53.94 54.12 53.58 50.00 55.31 54.94 53.59 56.01 62.66 63.05 64.30 67.33 67.09 66.30 65.77 66.40 66.48 66.88
50.09 49.52 48.90 48.50 48.76 49.50 50.98 51.80 56.54 55.72 55.97 50.75 48.09 55.51 54.73 55.42 55.95 55.03 55.56 56.32 55.26 53.52 52.84 52.66 54.54 57.18 53.76 49.98 48.92 53.84 57.01 58.50 55.95 56.70 64.66 65.42 66.11 66.81 66.98 66.09 66.41 67.10 67.24 67.67
50.13 49.34 48.54 48.46 49.18 48.31 49.72 49.00 51.93 48.66 54.02 51.48 47.62 48.18 54.52 55.75 55.19 54.46 54.30 56.18 53.70 53.57 52.53 52.60 53.14 54.09 53.49 50.91 48.15 55.75 56.93 54.01 57.57 58.81 63.36 62.13 63.74 64.11 65.78 64.61 65.26 63.92 64.08 63.79
49.70 48.81 48.78 49.12 48.96 48.27 48.90 53.74 50.42 50.54 53.38 51.97 46.92 49.19 52.14 55.91 51.01 50.02 54.48 52.40 52.73 52.70 51.27 52.24 51.86 52.79 52.96 47.64 52.45 54.12 54.23 56.56 58.43 58.35 60.52 62.97 65.61 62.39 62.19 62.29 61.50 60.08 59.81 61.41
48.95 48.38 48.66 49.18 49.30 51.13 54.14 51.51 51.74 55.94 53.25 48.52 47.29 46.20 46.73 55.39 51.51 53.20 54.38 54.16 48.31 52.73 49.17 49.47 50.52 49.48 46.16 49.18 51.90 52.21 55.43 57.05 56.56 58.45 59.98 60.06 61.30 61.63 58.76 57.14 58.70 58.91 58.13 58.91
47.88 47.52 48.14 48.29 53.01 52.88 52.49 52.00 50.70 50.17 51.11 50.67 47.58 50.76 48.56 53.64 51.17 49.45 50.24 52.10 48.66 45.27 48.71 51.78 47.37 46.74 52.61 52.82 53.91 56.49 56.47 56.49 58.07 58.35 58.19 58.67 59.08 58.53 55.39 58.21 58.98 58.46 58.31 59.56
46.77 47.94 49.61 54.36 50.60 52.54 51.59 48.26 46.93 48.11 45.60 48.59 48.14 48.84 47.78 54.67 50.02 49.78 51.70 49.07 48.50 45.54 47.41 46.78 45.96 45.86 50.64 56.01 56.62 56.82 56.02 56.47 56.84 59.70 61.06 61.01 61.24 59.75 59.04 57.77 59.34 58.91 60.05 60.52
48.39 49.83 54.06 52.32 50.08 48.98 45.08 44.66 46.83 46.24 44.18 48.63 47.25 48.26 49.72 53.93 54.95 51.43 51.03 46.47 48.61 42.97 47.89 48.27 45.15 53.43 55.55 55.37 55.41 56.06 57.31 57.45 58.00 59.19 59.18 59.58 59.96 59.51 59.68 58.79 59.83 60.30 60.65 60.97
52.09 50.43 47.75 48.29 47.41 38.39 39.92 39.05 43.11 43.80 48.78 50.51 49.66 49.20 49.86 51.36 52.97 49.71 49.77 45.56 44.05 51.84 46.82 45.20 48.71 55.90 56.00 56.17 55.94 55.88 56.65 56.54 56.67 56.63 57.28 57.85 57.79 58.88 58.85 58.48 59.31 60.03 60.11 60.60
47.00 44.77 35.89 42.01 40.33 42.40 43.70 45.10 46.41 50.06 50.49 50.76 50.98 50.06 47.87 50.12 48.75 49.41 44.28 47.71 48.83 43.82 37.88 39.97 52.15 55.12 55.74 56.27 56.52 56.13 55.41 56.49 56.36 56.33 56.88 57.13 57.69 58.07 58.99 59.35 59.85 59.74 59.39 60.02
45.47 45.83 36.94 41.63 47.06 47.47 48.28 51.17 51.24 53.51 54.14 52.66 51.47 51.32 49.99 49.60 47.51 49.21 46.24 44.61 42.11 43.94 44.55 49.65 53.95 56.45 56.33 55.94 56.03 56.08 56.37 56.44 56.60 57.07 56.86 57.62 58.10 58.10 58.54 59.72 59.68 59.73 59.33 58.78
47.57 46.28 44.26 46.38 45.96 46.65 49.07 49.70 49.52 52.45 52.07 52.86 52.55 48.22 46.48 45.30 46.66 44.57 43.89 42.41 41.44 46.05 50.11 52.78 55.41 55.66 55.90 55.94 55.98 56.07 57.17 56.76 56.76 57.03 57.32 57.45 57.56 57.84 58.02 58.99 59.35 58.81 58.23 57.61
44.84 44.85 49.18 48.54 48.42 47.69 49.24 50.17 51.61 54.47 52.20 49.58 48.69 44.77 44.88 49.24 44.01 44.47 48.34 46.35 49.70 51.30 52.17 52.78 53.65 55.84 56.13 56.49 56.80 56.72 56.56 56.28 56.48 56.05 56.71 57.02 58.55 58.05 57.48 56.78 58.32 58.35 57.92 57.64